Observation data for Wall on 06/27/2019      Previous  Date  Next       Current Mesonet Observations  Soil Data  Daily Summary Page  Observations in Plain Language
KWA1 270500Z 15007KT 25/20 A3017 RMK A01 T02480195  RH  072%=      5-min Rain = 0
KWA1 270501Z 14007KT 25/20 A3017 RMK A01 T02480195  RH  072%=      5-min Rain = 0
KWA1 270502Z 15007KT 25/20 A3017 RMK A01 T02470195  RH  073%=      5-min Rain = 0
KWA1 270503Z 14006KT 25/20 A3017 RMK A01 T02470195  RH  073%=      5-min Rain = 0
KWA1 270504Z 15006KT 25/20 A3017 RMK A01 T02470196  RH  073%=      5-min Rain = 0
KWA1 270505Z 15006KT 25/20 A3017 RMK A01 T02460195  RH  073%=      5-min Rain = 0
KWA1 270506Z 15006KT 25/20 A3017 RMK A01 T02460196  RH  074%=      5-min Rain = 0
KWA1 270507Z 15006KT 25/20 A3017 RMK A01 T02450196  RH  074%=      5-min Rain = 0
KWA1 270508Z 15006KT 24/20 A3017 RMK A01 T02440196  RH  074%=      5-min Rain = 0
KWA1 270509Z 15005KT 24/20 A3017 RMK A01 T02430196  RH  075%=      5-min Rain = 0
KWA1 270510Z 14005KT 24/20 A3017 RMK A01 T02430197  RH  075%=      5-min Rain = 0
KWA1 270511Z 14005KT 24/20 A3017 RMK A01 T02430197  RH  076%=      5-min Rain = 0
KWA1 270512Z 14005KT 24/20 A3018 RMK A01 T02430197  RH  076%=      5-min Rain = 0
KWA1 270513Z 14005KT 24/20 A3018 RMK A01 T02430198  RH  076%=      5-min Rain = 0
KWA1 270514Z 14005KT 24/20 A3018 RMK A01 T02420198  RH  076%=      5-min Rain = 0
KWA1 270515Z 14005KT 24/20 A3018 RMK A01 T02420198  RH  076%=      5-min Rain = 0
KWA1 270516Z 14006KT 24/20 A3018 RMK A01 T02420199  RH  077%=      5-min Rain = 0
KWA1 270517Z 14006KT 24/20 A3017 RMK A01 T02430200  RH  077%=      5-min Rain = 0
KWA1 270518Z 14006KT 24/20 A3017 RMK A01 T02430200  RH  077%=      5-min Rain = 0
KWA1 270519Z 14005KT 24/20 A3017 RMK A01 T02430201  RH  077%=      5-min Rain = 0
KWA1 270520Z 14006KT 24/20 A3017 RMK A01 T02430200  RH  077%=      5-min Rain = 0
KWA1 270521Z 14005KT 24/20 A3017 RMK A01 T02430201  RH  077%=      5-min Rain = 0
KWA1 270522Z 14005KT 24/20 A3017 RMK A01 T02430201  RH  078%=      5-min Rain = 0
KWA1 270523Z 14006KT 24/20 A3018 RMK A01 T02420201  RH  078%=      5-min Rain = 0
KWA1 270524Z 14006KT 24/20 A3018 RMK A01 T02420201  RH  078%=      5-min Rain = 0
KWA1 270525Z 14005KT 24/20 A3018 RMK A01 T02420201  RH  078%=      5-min Rain = 0
KWA1 270526Z 14005KT 24/20 A3018 RMK A01 T02420202  RH  078%=      5-min Rain = 0
KWA1 270527Z 14006KT 24/20 A3018 RMK A01 T02410201  RH  078%=      5-min Rain = 0
KWA1 270528Z 14006KT 24/20 A3018 RMK A01 T02410201  RH  078%=      5-min Rain = 0
KWA1 270529Z 15006KT 24/20 A3017 RMK A01 T02410201  RH  078%=      5-min Rain = 0
KWA1 270530Z 15006KT 24/20 A3017 RMK A01 T02410201  RH  078%=      5-min Rain = 0
KWA1 270531Z 14006KT 24/20 A3017 RMK A01 T02410201  RH  078%=      5-min Rain = 0
KWA1 270532Z 14006KT 24/20 A3017 RMK A01 T02410201  RH  078%=      5-min Rain = 0
KWA1 270533Z 15006KT 24/20 A3017 RMK A01 T02420201  RH  078%=      5-min Rain = 0
KWA1 270534Z 15006KT 24/20 A3017 RMK A01 T02410201  RH  078%=      5-min Rain = 0
KWA1 270535Z 15007KT 24/20 A3017 RMK A01 T02410200  RH  078%=      5-min Rain = 0
KWA1 270536Z 14007KT 24/20 A3017 RMK A01 T02410200  RH  078%=      5-min Rain = 0
KWA1 270537Z 14007KT 24/20 A3017 RMK A01 T02410200  RH  077%=      5-min Rain = 0
KWA1 270538Z 14007KT 24/20 A3017 RMK A01 T02410199  RH  077%=      5-min Rain = 0
KWA1 270539Z 14007KT 24/20 A3017 RMK A01 T02410199  RH  077%=      5-min Rain = 0
KWA1 270540Z 14007KT 24/20 A3017 RMK A01 T02410199  RH  077%=      5-min Rain = 0
KWA1 270541Z 14007KT 24/20 A3017 RMK A01 T02410199  RH  077%=      5-min Rain = 0
KWA1 270542Z 14007KT 24/20 A3017 RMK A01 T02410199  RH  077%=      5-min Rain = 0
KWA1 270543Z 14006KT 24/20 A3017 RMK A01 T02410198  RH  077%=      5-min Rain = 0
KWA1 270544Z 14007KT 24/20 A3017 RMK A01 T02420199  RH  077%=      5-min Rain = 0
KWA1 270545Z 15006KT 24/20 A3017 RMK A01 T02420199  RH  077%=      5-min Rain = 0
KWA1 270546Z 15007KT 24/20 A3017 RMK A01 T02420199  RH  077%=      5-min Rain = 0
KWA1 270547Z 14007KT 24/20 A3017 RMK A01 T02410199  RH  077%=      5-min Rain = 0
KWA1 270548Z 15007KT 24/20 A3017 RMK A01 T02410199  RH  077%=      5-min Rain = 0
KWA1 270549Z 14007KT 24/20 A3017 RMK A01 T02400198  RH  077%=      5-min Rain = 0
KWA1 270550Z 15006KT 24/20 A3017 RMK A01 T02400198  RH  077%=      5-min Rain = 0
KWA1 270551Z 15007KT 24/20 A3017 RMK A01 T02400198  RH  077%=      5-min Rain = 0
KWA1 270552Z 14007KT 24/20 A3017 RMK A01 T02400198  RH  077%=      5-min Rain = 0
KWA1 270553Z 14006KT 24/20 A3017 RMK A01 T02400198  RH  077%=      5-min Rain = 0
KWA1 270554Z 15007KT 24/20 A3017 RMK A01 T02390198  RH  077%=      5-min Rain = 0
KWA1 270555Z 15007KT 24/20 A3017 RMK A01 T02390197  RH  077%=      5-min Rain = 0
KWA1 270556Z 15007KT 24/20 A3017 RMK A01 T02400197  RH  077%=      5-min Rain = 0
KWA1 270557Z 15007KT 24/20 A3017 RMK A01 T02400197  RH  077%=      5-min Rain = 0
KWA1 270558Z 15007KT 24/20 A3017 RMK A01 T02400197  RH  077%=      5-min Rain = 0
KWA1 270559Z 15008KT 24/20 A3017 RMK A01 T02400198  RH  077%=      5-min Rain = 0
KWA1 270600Z 15007KT 24/20 A3016 RMK A01 T02400197  RH  077%=      5-min Rain = 0
KWA1 270601Z 15007KT 24/20 A3017 RMK A01 T02400198  RH  077%=      5-min Rain = 0
KWA1 270602Z 15007KT 24/20 A3017 RMK A01 T02390197  RH  077%=      5-min Rain = 0
KWA1 270603Z 15006KT 24/20 A3017 RMK A01 T02390197  RH  077%=      5-min Rain = 0
KWA1 270604Z 15006KT 24/20 A3017 RMK A01 T02390197  RH  078%=      5-min Rain = 0
KWA1 270605Z 15007KT 24/20 A3017 RMK A01 T02380197  RH  078%=      5-min Rain = 0
KWA1 270606Z 14007KT 24/20 A3017 RMK A01 T02380197  RH  078%=      5-min Rain = 0
KWA1 270607Z 14006KT 24/20 A3017 RMK A01 T02380197  RH  078%=      5-min Rain = 0
KWA1 270608Z 14007KT 24/20 A3017 RMK A01 T02380197  RH  078%=      5-min Rain = 0
KWA1 270609Z 13006KT 24/20 A3017 RMK A01 T02380197  RH  078%=      5-min Rain = 0
KWA1 270610Z 13006KT 24/20 A3017 RMK A01 T02380197  RH  078%=      5-min Rain = 0
KWA1 270611Z 13006KT 24/20 A3017 RMK A01 T02380197  RH  078%=      5-min Rain = 0
KWA1 270612Z 13006KT 24/20 A3017 RMK A01 T02380198  RH  078%=      5-min Rain = 0
KWA1 270613Z 13006KT 24/20 A3017 RMK A01 T02370198  RH  079%=      5-min Rain = 0
KWA1 270614Z 13005KT 24/20 A3017 RMK A01 T02360198  RH  079%=      5-min Rain = 0
KWA1 270615Z 13006KT 24/20 A3017 RMK A01 T02360198  RH  079%=      5-min Rain = 0
KWA1 270616Z 13006KT 24/20 A3017 RMK A01 T02350198  RH  079%=      5-min Rain = 0
KWA1 270617Z 13007KT 24/20 A3017 RMK A01 T02350198  RH  079%=      5-min Rain = 0
KWA1 270618Z 14007KT 24/20 A3017 RMK A01 T02360198  RH  079%=      5-min Rain = 0
KWA1 270619Z 14006KT 24/20 A3017 RMK A01 T02360197  RH  079%=      5-min Rain = 0
KWA1 270620Z 14007KT 24/20 A3017 RMK A01 T02360197  RH  079%=      5-min Rain = 0
KWA1 270621Z 13006KT 24/20 A3017 RMK A01 T02370197  RH  078%=      5-min Rain = 0
KWA1 270622Z 14007KT 24/20 A3017 RMK A01 T02370197  RH  078%=      5-min Rain = 0
KWA1 270623Z 13006KT 24/20 A3017 RMK A01 T02370197  RH  078%=      5-min Rain = 0
KWA1 270624Z 14006KT 24/20 A3017 RMK A01 T02370197  RH  078%=      5-min Rain = 0
KWA1 270625Z 14006KT 24/20 A3017 RMK A01 T02370197  RH  078%=      5-min Rain = 0
KWA1 270626Z 14006KT 24/20 A3017 RMK A01 T02370197  RH  078%=      5-min Rain = 0
KWA1 270627Z 14007KT 24/20 A3017 RMK A01 T02360197  RH  079%=      5-min Rain = 0
KWA1 270628Z 14008KT 24/20 A3017 RMK A01 T02360197  RH  079%=      5-min Rain = 0
KWA1 270629Z 14007KT 24/20 A3017 RMK A01 T02360197  RH  078%=      5-min Rain = 0
KWA1 270630Z 14008KT 24/20 A3017 RMK A01 T02360197  RH  078%=      5-min Rain = 0
KWA1 270631Z 14008KT 24/20 A3016 RMK A01 T02360196  RH  078%=      5-min Rain = 0
KWA1 270632Z 14008KT 24/20 A3016 RMK A01 T02370197  RH  078%=      5-min Rain = 0
KWA1 270633Z 14007KT 24/20 A3016 RMK A01 T02360196  RH  078%=      5-min Rain = 0
KWA1 270634Z 14007KT 24/20 A3016 RMK A01 T02360197  RH  078%=      5-min Rain = 0
KWA1 270635Z 14008KT 24/20 A3016 RMK A01 T02360197  RH  079%=      5-min Rain = 0
KWA1 270636Z 14009KT 24/20 A3016 RMK A01 T02360197  RH  079%=      5-min Rain = 0
KWA1 270637Z 14008KT 24/20 A3016 RMK A01 T02370197  RH  078%=      5-min Rain = 0
KWA1 270638Z 14007KT 24/20 A3016 RMK A01 T02370197  RH  078%=      5-min Rain = 0
KWA1 270639Z 13007KT 24/20 A3016 RMK A01 T02370197  RH  078%=      5-min Rain = 0
KWA1 270640Z 13007KT 24/20 A3016 RMK A01 T02370197  RH  078%=      5-min Rain = 0
KWA1 270641Z 14007KT 24/20 A3016 RMK A01 T02370197  RH  079%=      5-min Rain = 0
KWA1 270642Z 13008KT 24/20 A3016 RMK A01 T02360197  RH  079%=      5-min Rain = 0
KWA1 270643Z 13007KT 24/20 A3016 RMK A01 T02360198  RH  079%=      5-min Rain = 0
KWA1 270644Z 13007KT 24/20 A3016 RMK A01 T02360198  RH  079%=      5-min Rain = 0
KWA1 270645Z 13006KT 24/20 A3016 RMK A01 T02350198  RH  080%=      5-min Rain = 0
KWA1 270646Z 13007KT 23/20 A3016 RMK A01 T02340197  RH  080%=      5-min Rain = 0
KWA1 270647Z 14006KT 23/20 A3016 RMK A01 T02340197  RH  080%=      5-min Rain = 0
KWA1 270648Z 14006KT 23/20 A3016 RMK A01 T02340198  RH  080%=      5-min Rain = 0
KWA1 270649Z 14006KT 23/20 A3016 RMK A01 T02330198  RH  080%=      5-min Rain = 0
KWA1 270650Z 13006KT 23/20 A3016 RMK A01 T02330198  RH  080%=      5-min Rain = 0
KWA1 270651Z 13006KT 23/20 A3016 RMK A01 T02330198  RH  080%=      5-min Rain = 0
KWA1 270652Z 13006KT 23/20 A3016 RMK A01 T02340198  RH  080%=      5-min Rain = 0
KWA1 270653Z 13006KT 23/20 A3016 RMK A01 T02330198  RH  081%=      5-min Rain = 0
KWA1 270654Z 13006KT 23/20 A3016 RMK A01 T02330198  RH  081%=      5-min Rain = 0
KWA1 270655Z 13005KT 23/20 A3016 RMK A01 T02330198  RH  081%=      5-min Rain = 0
KWA1 270656Z 13005KT 23/20 A3016 RMK A01 T02330199  RH  081%=      5-min Rain = 0
KWA1 270657Z 13006KT 23/20 A3016 RMK A01 T02320198  RH  081%=      5-min Rain = 0
KWA1 270658Z 13005KT 23/20 A3016 RMK A01 T02310198  RH  082%=      5-min Rain = 0
KWA1 270659Z 13005KT 23/20 A3016 RMK A01 T02310198  RH  082%=      5-min Rain = 0
KWA1 270700Z 13006KT 23/20 A3016 RMK A01 T02310199  RH  082%=      5-min Rain = 0
KWA1 270701Z 13006KT 23/20 A3016 RMK A01 T02310199  RH  082%=      5-min Rain = 0
KWA1 270702Z 13005KT 23/20 A3016 RMK A01 T02310199  RH  082%=      5-min Rain = 0
KWA1 270703Z 13006KT 23/20 A3016 RMK A01 T02300199  RH  082%=      5-min Rain = 0
KWA1 270704Z 13005KT 23/20 A3016 RMK A01 T02300199  RH  082%=      5-min Rain = 0
KWA1 270705Z 13006KT 23/20 A3016 RMK A01 T02300199  RH  082%=      5-min Rain = 0
KWA1 270706Z 13006KT 23/20 A3016 RMK A01 T02300199  RH  082%=      5-min Rain = 0
KWA1 270707Z 12005KT 23/20 A3016 RMK A01 T02300199  RH  082%=      5-min Rain = 0
KWA1 270708Z 12005KT 23/20 A3016 RMK A01 T02300198  RH  082%=      5-min Rain = 0
KWA1 270709Z 12005KT 23/20 A3016 RMK A01 T02300199  RH  083%=      5-min Rain = 0
KWA1 270710Z 12005KT 23/20 A3016 RMK A01 T02300199  RH  083%=      5-min Rain = 0
KWA1 270711Z 13005KT 23/20 A3016 RMK A01 T02290199  RH  083%=      5-min Rain = 0
KWA1 270712Z 13005KT 23/20 A3016 RMK A01 T02290199  RH  083%=      5-min Rain = 0
KWA1 270713Z 13005KT 23/20 A3016 RMK A01 T02290199  RH  083%=      5-min Rain = 0
KWA1 270714Z 13005KT 23/20 A3016 RMK A01 T02280198  RH  083%=      5-min Rain = 0
KWA1 270715Z 13005KT 23/20 A3016 RMK A01 T02280199  RH  083%=      5-min Rain = 0
KWA1 270716Z 12005KT 23/20 A3016 RMK A01 T02290199  RH  083%=      5-min Rain = 0
KWA1 270717Z 12005KT 23/20 A3016 RMK A01 T02280198  RH  083%=      5-min Rain = 0
KWA1 270718Z 12005KT 23/20 A3016 RMK A01 T02290198  RH  083%=      5-min Rain = 0
KWA1 270719Z 12005KT 23/20 A3016 RMK A01 T02280199  RH  083%=      5-min Rain = 0
KWA1 270720Z 12005KT 23/20 A3016 RMK A01 T02280198  RH  083%=      5-min Rain = 0
KWA1 270721Z 12005KT 23/20 A3016 RMK A01 T02280199  RH  083%=      5-min Rain = 0
KWA1 270722Z 12006KT 23/20 A3016 RMK A01 T02280199  RH  084%=      5-min Rain = 0
KWA1 270723Z 12006KT 23/20 A3016 RMK A01 T02280199  RH  084%=      5-min Rain = 0
KWA1 270724Z 12005KT 23/20 A3016 RMK A01 T02280199  RH  083%=      5-min Rain = 0
KWA1 270725Z 12006KT 23/20 A3016 RMK A01 T02280199  RH  084%=      5-min Rain = 0
KWA1 270726Z 12006KT 23/20 A3016 RMK A01 T02280199  RH  084%=      5-min Rain = 0
KWA1 270727Z 12006KT 23/20 A3016 RMK A01 T02280199  RH  084%=      5-min Rain = 0
KWA1 270728Z 12006KT 23/20 A3016 RMK A01 T02280199  RH  084%=      5-min Rain = 0
KWA1 270729Z 12006KT 23/20 A3016 RMK A01 T02270199  RH  084%=      5-min Rain = 0
KWA1 270730Z 12006KT 23/20 A3015 RMK A01 T02270199  RH  084%=      5-min Rain = 0
KWA1 270731Z 13005KT 23/20 A3015 RMK A01 T02270199  RH  084%=      5-min Rain = 0
KWA1 270732Z 13005KT 23/20 A3015 RMK A01 T02270199  RH  084%=      5-min Rain = 0
KWA1 270733Z 13005KT 23/20 A3015 RMK A01 T02260199  RH  084%=      5-min Rain = 0
KWA1 270734Z 13005KT 23/20 A3015 RMK A01 T02260199  RH  085%=      5-min Rain = 0
KWA1 270735Z 13005KT 23/20 A3015 RMK A01 T02260199  RH  085%=      5-min Rain = 0
KWA1 270736Z 13005KT 23/20 A3015 RMK A01 T02250199  RH  085%=      5-min Rain = 0
KWA1 270737Z 13004KT 23/20 A3015 RMK A01 T02250199  RH  085%=      5-min Rain = 0
KWA1 270738Z 14005KT 23/20 A3015 RMK A01 T02250199  RH  085%=      5-min Rain = 0
KWA1 270739Z 13004KT 23/20 A3015 RMK A01 T02250199  RH  085%=      5-min Rain = 0
KWA1 270740Z 14005KT 23/20 A3015 RMK A01 T02250199  RH  085%=      5-min Rain = 0
KWA1 270741Z 14005KT 23/20 A3015 RMK A01 T02250199  RH  085%=      5-min Rain = 0
KWA1 270742Z 14005KT 23/20 A3015 RMK A01 T02250199  RH  085%=      5-min Rain = 0
KWA1 270743Z 14005KT 23/20 A3015 RMK A01 T02250198  RH  085%=      5-min Rain = 0
KWA1 270744Z 14005KT 23/20 A3015 RMK A01 T02250199  RH  085%=      5-min Rain = 0
KWA1 270745Z 14004KT 23/20 A3015 RMK A01 T02250199  RH  085%=      5-min Rain = 0
KWA1 270746Z 15005KT 23/20 A3015 RMK A01 T02250198  RH  085%=      5-min Rain = 0
KWA1 270747Z 15004KT 23/20 A3015 RMK A01 T02250198  RH  085%=      5-min Rain = 0
KWA1 270748Z 15004KT 23/20 A3015 RMK A01 T02250198  RH  085%=      5-min Rain = 0
KWA1 270749Z 15004KT 23/20 A3015 RMK A01 T02250198  RH  085%=      5-min Rain = 0
KWA1 270750Z 15004KT 23/20 A3015 RMK A01 T02250198  RH  085%=      5-min Rain = 0
KWA1 270751Z 15003KT 23/20 A3015 RMK A01 T02250198  RH  085%=      5-min Rain = 0
KWA1 270752Z 15004KT 22/20 A3015 RMK A01 T02240198  RH  085%=      5-min Rain = 0
KWA1 270753Z 15004KT 22/20 A3015 RMK A01 T02240198  RH  085%=      5-min Rain = 0
KWA1 270754Z 15004KT 22/20 A3015 RMK A01 T02230198  RH  086%=      5-min Rain = 0
KWA1 270755Z 15004KT 22/20 A3015 RMK A01 T02230198  RH  086%=      5-min Rain = 0
KWA1 270756Z 15004KT 22/20 A3015 RMK A01 T02230198  RH  086%=      5-min Rain = 0
KWA1 270757Z 15003KT 22/20 A3015 RMK A01 T02230198  RH  086%=      5-min Rain = 0
KWA1 270758Z 14004KT 22/20 A3015 RMK A01 T02230199  RH  086%=      5-min Rain = 0
KWA1 270759Z 14003KT 22/20 A3015 RMK A01 T02220198  RH  086%=      5-min Rain = 0
KWA1 270800Z 14003KT 22/20 A3015 RMK A01 T02220198  RH  086%=      5-min Rain = 0
KWA1 270801Z 15004KT 22/20 A3015 RMK A01 T02220198  RH  086%=      5-min Rain = 0
KWA1 270802Z 15003KT 22/20 A3015 RMK A01 T02210198  RH  087%=      5-min Rain = 0
KWA1 270803Z 15004KT 22/20 A3015 RMK A01 T02210198  RH  087%=      5-min Rain = 0
KWA1 270804Z 15004KT 22/20 A3015 RMK A01 T02210198  RH  087%=      5-min Rain = 0
KWA1 270805Z 15004KT 22/20 A3015 RMK A01 T02210198  RH  087%=      5-min Rain = 0
KWA1 270806Z 15004KT 22/20 A3015 RMK A01 T02200198  RH  087%=      5-min Rain = 0
KWA1 270807Z 14004KT 22/20 A3015 RMK A01 T02200198  RH  087%=      5-min Rain = 0
KWA1 270808Z 15004KT 22/20 A3015 RMK A01 T02200198  RH  087%=      5-min Rain = 0
KWA1 270809Z 15004KT 22/20 A3015 RMK A01 T02200198  RH  087%=      5-min Rain = 0
KWA1 270810Z 15004KT 22/20 A3015 RMK A01 T02200198  RH  087%=      5-min Rain = 0
KWA1 270811Z 14004KT 22/20 A3015 RMK A01 T02210198  RH  087%=      5-min Rain = 0
KWA1 270812Z 14004KT 22/20 A3015 RMK A01 T02200198  RH  087%=      5-min Rain = 0
KWA1 270813Z 14005KT 22/20 A3015 RMK A01 T02210198  RH  087%=      5-min Rain = 0
KWA1 270814Z 14004KT 22/20 A3015 RMK A01 T02210199  RH  087%=      5-min Rain = 0
KWA1 270815Z 14005KT 22/20 A3015 RMK A01 T02210199  RH  087%=      5-min Rain = 0
KWA1 270816Z 14005KT 22/20 A3015 RMK A01 T02220199  RH  087%=      5-min Rain = 0
KWA1 270817Z 13005KT 22/20 A3015 RMK A01 T02220199  RH  087%=      5-min Rain = 0
KWA1 270818Z 13005KT 22/20 A3015 RMK A01 T02220199  RH  087%=      5-min Rain = 0
KWA1 270819Z 13005KT 22/20 A3015 RMK A01 T02210199  RH  087%=      5-min Rain = 0
KWA1 270820Z 14005KT 22/20 A3015 RMK A01 T02210199  RH  087%=      5-min Rain = 0
KWA1 270821Z 14005KT 22/20 A3015 RMK A01 T02210199  RH  087%=      5-min Rain = 0
KWA1 270822Z 14005KT 22/20 A3015 RMK A01 T02210199  RH  087%=      5-min Rain = 0
KWA1 270823Z 14005KT 22/20 A3015 RMK A01 T02210199  RH  087%=      5-min Rain = 0
KWA1 270824Z 14005KT 22/20 A3015 RMK A01 T02210199  RH  087%=      5-min Rain = 0
KWA1 270825Z 14005KT 22/20 A3015 RMK A01 T02210199  RH  087%=      5-min Rain = 0
KWA1 270826Z 14004KT 22/20 A3015 RMK A01 T02210199  RH  087%=      5-min Rain = 0
KWA1 270827Z 14005KT 22/20 A3014 RMK A01 T02210199  RH  087%=      5-min Rain = 0
KWA1 270828Z 15004KT 22/20 A3014 RMK A01 T02210199  RH  087%=      5-min Rain = 0
KWA1 270829Z 14004KT 22/20 A3014 RMK A01 T02210199  RH  087%=      5-min Rain = 0
KWA1 270830Z 15005KT 22/20 A3014 RMK A01 T02200199  RH  087%=      5-min Rain = 0
KWA1 270831Z 15005KT 22/20 A3014 RMK A01 T02200199  RH  087%=      5-min Rain = 0
KWA1 270832Z 15005KT 22/20 A3014 RMK A01 T02210199  RH  087%=      5-min Rain = 0
KWA1 270833Z 15005KT 22/20 A3014 RMK A01 T02210199  RH  087%=      5-min Rain = 0
KWA1 270834Z 16005KT 22/20 A3014 RMK A01 T02210199  RH  087%=      5-min Rain = 0
KWA1 270835Z 15005KT 22/20 A3014 RMK A01 T02210199  RH  087%=      5-min Rain = 0
KWA1 270836Z 15005KT 22/20 A3014 RMK A01 T02210199  RH  087%=      5-min Rain = 0
KWA1 270837Z 16004KT 22/20 A3014 RMK A01 T02210199  RH  087%=      5-min Rain = 0
KWA1 270838Z 16004KT 22/20 A3014 RMK A01 T02200199  RH  087%=      5-min Rain = 0
KWA1 270839Z 16004KT 22/20 A3014 RMK A01 T02200198  RH  087%=      5-min Rain = 0
KWA1 270840Z 16004KT 22/20 A3014 RMK A01 T02200198  RH  088%=      5-min Rain = 0
KWA1 270841Z 16006KT 22/20 A3014 RMK A01 T02190198  RH  088%=      5-min Rain = 0
KWA1 270842Z 17005KT 22/20 A3014 RMK A01 T02200199  RH  088%=      5-min Rain = 0
KWA1 270843Z 16005KT 22/20 A3014 RMK A01 T02190198  RH  088%=      5-min Rain = 0
KWA1 270844Z 17005KT 22/20 A3014 RMK A01 T02190198  RH  088%=      5-min Rain = 0
KWA1 270845Z 16006KT 22/20 A3014 RMK A01 T02200199  RH  088%=      5-min Rain = 0
KWA1 270846Z 17006KT 22/20 A3014 RMK A01 T02200199  RH  088%=      5-min Rain = 0
KWA1 270847Z 18006KT 22/20 A3014 RMK A01 T02190199  RH  088%=      5-min Rain = 0
KWA1 270848Z 17006KT 22/20 A3014 RMK A01 T02190199  RH  088%=      5-min Rain = 0
KWA1 270849Z 17007KT 22/20 A3014 RMK A01 T02190199  RH  088%=      5-min Rain = 0
KWA1 270850Z 17006KT 22/20 A3014 RMK A01 T02190199  RH  088%=      5-min Rain = 0
KWA1 270851Z 17008KT 22/20 A3014 RMK A01 T02200199  RH  088%=      5-min Rain = 0
KWA1 270852Z 17008KT 22/20 A3014 RMK A01 T02200199  RH  088%=      5-min Rain = 0
KWA1 270853Z 17008KT 22/20 A3014 RMK A01 T02200199  RH  088%=      5-min Rain = 0
KWA1 270854Z 18007KT 22/20 A3014 RMK A01 T02200199  RH  088%=      5-min Rain = 0
KWA1 270855Z 17007KT 22/20 A3014 RMK A01 T02200199  RH  088%=      5-min Rain = 0
KWA1 270856Z 17007KT 22/20 A3014 RMK A01 T02200199  RH  088%=      5-min Rain = 0
KWA1 270857Z 18007KT 22/20 A3014 RMK A01 T02200199  RH  088%=      5-min Rain = 0
KWA1 270858Z 18008KT 22/20 A3014 RMK A01 T02200199  RH  088%=      5-min Rain = 0
KWA1 270859Z 18007KT 22/20 A3014 RMK A01 T02200199  RH  088%=      5-min Rain = 0
KWA1 270900Z 18007KT 22/20 A3014 RMK A01 T02200199  RH  088%=      5-min Rain = 0
KWA1 270901Z 18007KT 22/20 A3014 RMK A01 T02200199  RH  088%=      5-min Rain = 0
KWA1 270902Z 18007KT 22/20 A3014 RMK A01 T02210199  RH  087%=      5-min Rain = 0
KWA1 270903Z 18006KT 22/20 A3014 RMK A01 T02210199  RH  087%=      5-min Rain = 0
KWA1 270904Z 19007KT 22/20 A3014 RMK A01 T02210199  RH  087%=      5-min Rain = 0
KWA1 270905Z 19007KT 22/20 A3014 RMK A01 T02210198  RH  087%=      5-min Rain = 0
KWA1 270906Z 19007KT 22/20 A3014 RMK A01 T02210198  RH  087%=      5-min Rain = 0
KWA1 270907Z 20006KT 22/20 A3014 RMK A01 T02210198  RH  087%=      5-min Rain = 0
KWA1 270908Z 19006KT 22/20 A3014 RMK A01 T02210198  RH  087%=      5-min Rain = 0
KWA1 270909Z 19007KT 22/20 A3014 RMK A01 T02210198  RH  087%=      5-min Rain = 0
KWA1 270910Z 19006KT 22/20 A3014 RMK A01 T02210198  RH  087%=      5-min Rain = 0
KWA1 270911Z 18008KT 22/20 A3014 RMK A01 T02210198  RH  087%=      5-min Rain = 0
KWA1 270912Z 19008KT 22/20 A3014 RMK A01 T02210198  RH  087%=      5-min Rain = 0
KWA1 270913Z 19007KT 22/20 A3014 RMK A01 T02220198  RH  086%=      5-min Rain = 0
KWA1 270914Z 18008KT 22/20 A3015 RMK A01 T02220198  RH  086%=      5-min Rain = 0
KWA1 270915Z 18008KT 22/20 A3015 RMK A01 T02220198  RH  086%=      5-min Rain = 0
KWA1 270916Z 19007KT 22/20 A3015 RMK A01 T02220197  RH  086%=      5-min Rain = 0
KWA1 270917Z 19007KT 22/20 A3015 RMK A01 T02220197  RH  086%=      5-min Rain = 0
KWA1 270918Z 19007KT 22/20 A3015 RMK A01 T02220197  RH  086%=      5-min Rain = 0
KWA1 270919Z 19007KT 22/20 A3015 RMK A01 T02220197  RH  086%=      5-min Rain = 0
KWA1 270920Z 18007KT 22/20 A3015 RMK A01 T02220197  RH  086%=      5-min Rain = 0
KWA1 270921Z 19007KT 22/20 A3015 RMK A01 T02220197  RH  086%=      5-min Rain = 0
KWA1 270922Z 19008KT 22/20 A3015 RMK A01 T02210197  RH  086%=      5-min Rain = 0
KWA1 270923Z 18007KT 22/20 A3015 RMK A01 T02220197  RH  086%=      5-min Rain = 0
KWA1 270924Z 18008KT 22/20 A3015 RMK A01 T02220197  RH  086%=      5-min Rain = 0
KWA1 270925Z 19007KT 22/20 A3015 RMK A01 T02220197  RH  086%=      5-min Rain = 0
KWA1 270926Z 18009KT 22/20 A3015 RMK A01 T02220197  RH  086%=      5-min Rain = 0
KWA1 270927Z 18008KT 22/20 A3015 RMK A01 T02220197  RH  085%=      5-min Rain = 0
KWA1 270928Z 18008KT 22/20 A3015 RMK A01 T02220196  RH  085%=      5-min Rain = 0
KWA1 270929Z 18007KT 22/20 A3015 RMK A01 T02220196  RH  085%=      5-min Rain = 0
KWA1 270930Z 18010KT 22/20 A3015 RMK A01 T02220197  RH  085%=      5-min Rain = 0
KWA1 270931Z 18008KT 22/20 A3015 RMK A01 T02220196  RH  085%=      5-min Rain = 0
KWA1 270932Z 18008KT 22/20 A3015 RMK A01 T02230196  RH  085%=      5-min Rain = 0
KWA1 270933Z 18009KT 22/20 A3015 RMK A01 T02230196  RH  085%=      5-min Rain = 0
KWA1 270934Z 18009KT 22/20 A3015 RMK A01 T02230196  RH  085%=      5-min Rain = 0
KWA1 270935Z 18008KT 22/20 A3015 RMK A01 T02220196  RH  085%=      5-min Rain = 0
KWA1 270936Z 18008KT 22/20 A3015 RMK A01 T02230196  RH  085%=      5-min Rain = 0
KWA1 270937Z 18009KT 22/20 A3015 RMK A01 T02230196  RH  085%=      5-min Rain = 0
KWA1 270938Z 18008KT 22/20 A3016 RMK A01 T02230196  RH  085%=      5-min Rain = 0
KWA1 270939Z 18007KT 22/20 A3016 RMK A01 T02230196  RH  085%=      5-min Rain = 0
KWA1 270940Z 18006KT 22/20 A3016 RMK A01 T02230196  RH  085%=      5-min Rain = 0
KWA1 270941Z 18007KT 22/20 A3016 RMK A01 T02220196  RH  085%=      5-min Rain = 0
KWA1 270942Z 18007KT 22/20 A3015 RMK A01 T02220196  RH  085%=      5-min Rain = 0
KWA1 270943Z 18008KT 22/20 A3015 RMK A01 T02210196  RH  085%=      5-min Rain = 0
KWA1 270944Z 18008KT 22/20 A3015 RMK A01 T02220196  RH  085%=      5-min Rain = 0
KWA1 270945Z 18008KT 22/20 A3015 RMK A01 T02220196  RH  085%=      5-min Rain = 0
KWA1 270946Z 18007KT 22/20 A3016 RMK A01 T02220196  RH  085%=      5-min Rain = 0
KWA1 270947Z 18007KT 22/20 A3016 RMK A01 T02210196  RH  086%=      5-min Rain = 0
KWA1 270948Z 18007KT 22/20 A3016 RMK A01 T02210196  RH  086%=      5-min Rain = 0
KWA1 270949Z 17007KT 22/20 A3016 RMK A01 T02210196  RH  086%=      5-min Rain = 0
KWA1 270950Z 17007KT 22/20 A3016 RMK A01 T02210196  RH  086%=      5-min Rain = 0
KWA1 270951Z 17006KT 22/20 A3016 RMK A01 T02210196  RH  086%=      5-min Rain = 0
KWA1 270952Z 17007KT 22/20 A3016 RMK A01 T02200196  RH  086%=      5-min Rain = 0
KWA1 270953Z 17006KT 22/20 A3016 RMK A01 T02200196  RH  086%=      5-min Rain = 0
KWA1 270954Z 17007KT 22/20 A3016 RMK A01 T02200196  RH  086%=      5-min Rain = 0
KWA1 270955Z 17006KT 22/20 A3016 RMK A01 T02200196  RH  086%=      5-min Rain = 0
KWA1 270956Z 18007KT 22/20 A3016 RMK A01 T02190196  RH  086%=      5-min Rain = 0
KWA1 270957Z 18007KT 22/20 A3016 RMK A01 T02190196  RH  086%=      5-min Rain = 0
KWA1 270958Z 18006KT 22/20 A3016 RMK A01 T02200196  RH  086%=      5-min Rain = 0
KWA1 270959Z 18006KT 22/20 A3016 RMK A01 T02200196  RH  086%=      5-min Rain = 0
KWA1 271000Z 18007KT 22/20 A3016 RMK A01 T02200196  RH  086%=      5-min Rain = 0
KWA1 271001Z 18006KT 22/20 A3016 RMK A01 T02200196  RH  086%=      5-min Rain = 0
KWA1 271002Z 18007KT 22/20 A3016 RMK A01 T02190196  RH  086%=      5-min Rain = 0
KWA1 271003Z 18006KT 22/20 A3016 RMK A01 T02190196  RH  086%=      5-min Rain = 0
KWA1 271004Z 18007KT 22/20 A3016 RMK A01 T02190195  RH  086%=      5-min Rain = 0
KWA1 271005Z 18006KT 22/20 A3016 RMK A01 T02190196  RH  086%=      5-min Rain = 0
KWA1 271006Z 18006KT 22/20 A3016 RMK A01 T02190196  RH  087%=      5-min Rain = 0
KWA1 271007Z 18007KT 22/20 A3016 RMK A01 T02190196  RH  087%=      5-min Rain = 0
KWA1 271008Z 18006KT 22/20 A3016 RMK A01 T02180196  RH  087%=      5-min Rain = 0
KWA1 271009Z 17007KT 22/20 A3016 RMK A01 T02180196  RH  087%=      5-min Rain = 0
KWA1 271010Z 18006KT 22/20 A3016 RMK A01 T02180196  RH  087%=      5-min Rain = 0
KWA1 271011Z 18006KT 22/20 A3016 RMK A01 T02180196  RH  087%=      5-min Rain = 0
KWA1 271012Z 18007KT 22/20 A3016 RMK A01 T02180196  RH  087%=      5-min Rain = 0
KWA1 271013Z 18006KT 22/20 A3016 RMK A01 T02180196  RH  087%=      5-min Rain = 0
KWA1 271014Z 18005KT 22/20 A3016 RMK A01 T02180196  RH  087%=      5-min Rain = 0
KWA1 271015Z 18007KT 22/20 A3016 RMK A01 T02180196  RH  087%=      5-min Rain = 0
KWA1 271016Z 18006KT 22/20 A3016 RMK A01 T02180196  RH  087%=      5-min Rain = 0
KWA1 271017Z 18005KT 22/20 A3016 RMK A01 T02180196  RH  087%=      5-min Rain = 0
KWA1 271018Z 18006KT 22/20 A3016 RMK A01 T02180196  RH  087%=      5-min Rain = 0
KWA1 271019Z 18006KT 22/20 A3016 RMK A01 T02180196  RH  088%=      5-min Rain = 0
KWA1 271020Z 18006KT 22/20 A3016 RMK A01 T02180196  RH  088%=      5-min Rain = 0
KWA1 271021Z 18005KT 22/20 A3016 RMK A01 T02180196  RH  088%=      5-min Rain = 0
KWA1 271022Z 18005KT 22/20 A3016 RMK A01 T02170196  RH  088%=      5-min Rain = 0
KWA1 271023Z 19005KT 22/20 A3016 RMK A01 T02170196  RH  088%=      5-min Rain = 0
KWA1 271024Z 18007KT 22/20 A3017 RMK A01 T02170196  RH  088%=      5-min Rain = 0
KWA1 271025Z 19005KT 22/20 A3017 RMK A01 T02170196  RH  088%=      5-min Rain = 0
KWA1 271026Z 18006KT 22/20 A3017 RMK A01 T02170197  RH  088%=      5-min Rain = 0
KWA1 271027Z 19005KT 22/20 A3017 RMK A01 T02180197  RH  088%=      5-min Rain = 0
KWA1 271028Z 18006KT 22/20 A3017 RMK A01 T02180197  RH  088%=      5-min Rain = 0
KWA1 271029Z 18005KT 22/20 A3017 RMK A01 T02180197  RH  088%=      5-min Rain = 0
KWA1 271030Z 18005KT 22/20 A3017 RMK A01 T02190197  RH  087%=      5-min Rain = 0
KWA1 271031Z 18005KT 22/20 A3017 RMK A01 T02180197  RH  088%=      5-min Rain = 0
KWA1 271032Z 18005KT 22/20 A3017 RMK A01 T02180197  RH  088%=      5-min Rain = 0
KWA1 271033Z 18006KT 22/20 A3017 RMK A01 T02190197  RH  088%=      5-min Rain = 0
KWA1 271034Z 18005KT 22/20 A3017 RMK A01 T02190197  RH  088%=      5-min Rain = 0
KWA1 271035Z 18005KT 22/20 A3017 RMK A01 T02190197  RH  088%=      5-min Rain = 0
KWA1 271036Z 18005KT 22/20 A3017 RMK A01 T02180197  RH  088%=      5-min Rain = 0
KWA1 271037Z 18007KT 22/20 A3017 RMK A01 T02190198  RH  088%=      5-min Rain = 0
KWA1 271038Z 18006KT 22/20 A3017 RMK A01 T02190198  RH  088%=      5-min Rain = 0
KWA1 271039Z 19007KT 22/20 A3017 RMK A01 T02200198  RH  088%=      5-min Rain = 0
KWA1 271040Z 19006KT 22/20 A3017 RMK A01 T02200198  RH  087%=      5-min Rain = 0
KWA1 271041Z 19007KT 22/20 A3017 RMK A01 T02210198  RH  087%=      5-min Rain = 0
KWA1 271042Z 19006KT 22/20 A3017 RMK A01 T02210198  RH  087%=      5-min Rain = 0
KWA1 271043Z 19007KT 22/20 A3017 RMK A01 T02210198  RH  087%=      5-min Rain = 0
KWA1 271044Z 19006KT 22/20 A3017 RMK A01 T02220198  RH  086%=      5-min Rain = 0
KWA1 271045Z 18007KT 22/20 A3017 RMK A01 T02220199  RH  086%=      5-min Rain = 0
KWA1 271046Z 18005KT 22/20 A3017 RMK A01 T02220198  RH  086%=      5-min Rain = 0
KWA1 271047Z 18006KT 22/20 A3017 RMK A01 T02220199  RH  086%=      5-min Rain = 0
KWA1 271048Z 18007KT 22/20 A3017 RMK A01 T02220199  RH  087%=      5-min Rain = 0
KWA1 271049Z 18007KT 22/20 A3017 RMK A01 T02220199  RH  087%=      5-min Rain = 0
KWA1 271050Z 18007KT 22/20 A3017 RMK A01 T02220199  RH  087%=      5-min Rain = 0
KWA1 271051Z 18008KT 22/20 A3017 RMK A01 T02220198  RH  086%=      5-min Rain = 0
KWA1 271052Z 19009KT 22/20 A3017 RMK A01 T02230198  RH  086%=      5-min Rain = 0
KWA1 271053Z 18007KT 22/20 A3017 RMK A01 T02230198  RH  086%=      5-min Rain = 0
KWA1 271054Z 18008KT 22/20 A3017 RMK A01 T02230199  RH  086%=      5-min Rain = 0
KWA1 271055Z 18007KT 22/20 A3018 RMK A01 T02220199  RH  086%=      5-min Rain = 0
KWA1 271056Z 18007KT 22/20 A3018 RMK A01 T02220199  RH  087%=      5-min Rain = 0
KWA1 271057Z 18007KT 22/20 A3018 RMK A01 T02220199  RH  087%=      5-min Rain = 0
KWA1 271058Z 18007KT 22/20 A3018 RMK A01 T02210199  RH  087%=      5-min Rain = 0
KWA1 271059Z 18007KT 22/20 A3018 RMK A01 T02210199  RH  087%=      5-min Rain = 0
KWA1 271100Z 18006KT 22/20 A3018 RMK A01 T02210199  RH  087%=      5-min Rain = 0
KWA1 271101Z 18006KT 22/20 A3018 RMK A01 T02210199  RH  087%=      5-min Rain = 0
KWA1 271102Z 19007KT 22/20 A3018 RMK A01 T02210199  RH  087%=      5-min Rain = 0
KWA1 271103Z 19007KT 22/20 A3018 RMK A01 T02210199  RH  087%=      5-min Rain = 0
KWA1 271104Z 18006KT 22/20 A3018 RMK A01 T02210199  RH  087%=      5-min Rain = 0
KWA1 271105Z 19006KT 22/20 A3018 RMK A01 T02210199  RH  087%=      5-min Rain = 0
KWA1 271106Z 19006KT 22/20 A3018 RMK A01 T02210199  RH  087%=      5-min Rain = 0
KWA1 271107Z 19006KT 22/20 A3018 RMK A01 T02210199  RH  087%=      5-min Rain = 0
KWA1 271108Z 19007KT 22/20 A3018 RMK A01 T02210199  RH  087%=      5-min Rain = 0
KWA1 271109Z 19006KT 22/20 A3018 RMK A01 T02210199  RH  087%=      5-min Rain = 0
KWA1 271110Z 19005KT 22/20 A3018 RMK A01 T02210199  RH  087%=      5-min Rain = 0
KWA1 271111Z 19006KT 22/20 A3018 RMK A01 T02210200  RH  088%=      5-min Rain = 0
KWA1 271112Z 19006KT 22/20 A3018 RMK A01 T02210199  RH  088%=      5-min Rain = 0
KWA1 271113Z 19005KT 22/20 A3018 RMK A01 T02210199  RH  088%=      5-min Rain = 0
KWA1 271114Z 19006KT 22/20 A3018 RMK A01 T02210200  RH  088%=      5-min Rain = 0
KWA1 271115Z 19006KT 22/20 A3018 RMK A01 T02210200  RH  088%=      5-min Rain = 0
KWA1 271116Z 20005KT 22/20 A3018 RMK A01 T02220200  RH  087%=      5-min Rain = 0
KWA1 271117Z 20005KT 22/20 A3018 RMK A01 T02220200  RH  087%=      5-min Rain = 0
KWA1 271118Z 20005KT 22/20 A3018 RMK A01 T02220200  RH  088%=      5-min Rain = 0
KWA1 271119Z 21005KT 22/20 A3018 RMK A01 T02220200  RH  088%=      5-min Rain = 0
KWA1 271120Z 20004KT 22/20 A3018 RMK A01 T02220201  RH  088%=      5-min Rain = 0
KWA1 271121Z 20004KT 22/20 A3019 RMK A01 T02210200  RH  088%=      5-min Rain = 0
KWA1 271122Z 20005KT 22/20 A3019 RMK A01 T02210201  RH  088%=      5-min Rain = 0
KWA1 271123Z 20004KT 22/20 A3019 RMK A01 T02210200  RH  088%=      5-min Rain = 0
KWA1 271124Z 20004KT 22/20 A3019 RMK A01 T02220201  RH  088%=      5-min Rain = 0
KWA1 271125Z 20004KT 22/20 A3019 RMK A01 T02210201  RH  088%=      5-min Rain = 0
KWA1 271126Z 20004KT 22/20 A3019 RMK A01 T02210201  RH  088%=      5-min Rain = 0
KWA1 271127Z 21004KT 22/20 A3019 RMK A01 T02210201  RH  088%=      5-min Rain = 0
KWA1 271128Z 20004KT 22/20 A3019 RMK A01 T02210201  RH  088%=      5-min Rain = 0
KWA1 271129Z 20004KT 22/20 A3019 RMK A01 T02210201  RH  088%=      5-min Rain = 0
KWA1 271130Z 21004KT 22/20 A3019 RMK A01 T02220201  RH  088%=      5-min Rain = 0
KWA1 271131Z 21004KT 22/20 A3019 RMK A01 T02220201  RH  088%=      5-min Rain = 0
KWA1 271132Z 20004KT 22/20 A3019 RMK A01 T02220201  RH  088%=      5-min Rain = 0
KWA1 271133Z 20003KT 22/20 A3019 RMK A01 T02220201  RH  088%=      5-min Rain = 0
KWA1 271134Z 21004KT 22/20 A3019 RMK A01 T02220201  RH  088%=      5-min Rain = 0
KWA1 271135Z 21004KT 22/20 A3019 RMK A01 T02220202  RH  088%=      5-min Rain = 0
KWA1 271136Z 21004KT 22/20 A3019 RMK A01 T02220202  RH  088%=      5-min Rain = 0
KWA1 271137Z 21004KT 22/20 A3019 RMK A01 T02220201  RH  088%=      5-min Rain = 0
KWA1 271138Z 21003KT 22/20 A3019 RMK A01 T02220201  RH  088%=      5-min Rain = 0
KWA1 271139Z 20003KT 22/20 A3019 RMK A01 T02220202  RH  088%=      5-min Rain = 0
KWA1 271140Z 21003KT 22/20 A3019 RMK A01 T02230202  RH  088%=      5-min Rain = 0
KWA1 271141Z 21003KT 22/20 A3019 RMK A01 T02230202  RH  088%=      5-min Rain = 0
KWA1 271142Z 21003KT 22/20 A3019 RMK A01 T02230202  RH  088%=      5-min Rain = 0
KWA1 271143Z 21003KT 22/20 A3019 RMK A01 T02230202  RH  088%=      5-min Rain = 0
KWA1 271144Z 22003KT 22/20 A3019 RMK A01 T02230202  RH  088%=      5-min Rain = 0
KWA1 271145Z 22003KT 22/20 A3019 RMK A01 T02230202  RH  088%=      5-min Rain = 0
KWA1 271146Z 22003KT 22/20 A3019 RMK A01 T02230202  RH  088%=      5-min Rain = 0
KWA1 271147Z 21003KT 22/20 A3019 RMK A01 T02230202  RH  088%=      5-min Rain = 0
KWA1 271148Z 21004KT 22/20 A3019 RMK A01 T02230202  RH  088%=      5-min Rain = 0
KWA1 271149Z 21003KT 22/20 A3019 RMK A01 T02230202  RH  088%=      5-min Rain = 0
KWA1 271150Z 20004KT 22/20 A3019 RMK A01 T02240203  RH  088%=      5-min Rain = 0
KWA1 271151Z 20003KT 22/20 A3019 RMK A01 T02240203  RH  088%=      5-min Rain = 0
KWA1 271152Z 20003KT 22/20 A3019 RMK A01 T02240202  RH  088%=      5-min Rain = 0
KWA1 271153Z 20003KT 22/20 A3019 RMK A01 T02240202  RH  088%=      5-min Rain = 0
KWA1 271154Z 20003KT 22/20 A3019 RMK A01 T02240202  RH  088%=      5-min Rain = 0
KWA1 271155Z 19004KT 22/20 A3019 RMK A01 T02240202  RH  087%=      5-min Rain = 0
KWA1 271156Z 19003KT 22/20 A3019 RMK A01 T02240202  RH  087%=      5-min Rain = 0
KWA1 271157Z 19003KT 22/20 A3019 RMK A01 T02240202  RH  087%=      5-min Rain = 0
KWA1 271158Z 19003KT 22/20 A3019 RMK A01 T02240202  RH  087%=      5-min Rain = 0
KWA1 271159Z 19003KT 22/20 A3019 RMK A01 T02240203  RH  088%=      5-min Rain = 0
KWA1 271200Z 19003KT 22/20 A3019 RMK A01 T02240203  RH  088%=      5-min Rain = 0
KWA1 271201Z 18003KT 22/20 A3019 RMK A01 T02230202  RH  088%=      5-min Rain = 0
KWA1 271202Z 19003KT 22/20 A3019 RMK A01 T02230202  RH  088%=      5-min Rain = 0
KWA1 271203Z 18003KT 22/20 A3019 RMK A01 T02240203  RH  088%=      5-min Rain = 0
KWA1 271204Z 18003KT 22/20 A3019 RMK A01 T02240203  RH  088%=      5-min Rain = 0
KWA1 271205Z 18003KT 22/20 A3019 RMK A01 T02230203  RH  088%=      5-min Rain = 0
KWA1 271206Z 19003KT 22/20 A3019 RMK A01 T02230203  RH  088%=      5-min Rain = 0
KWA1 271207Z 18003KT 22/20 A3019 RMK A01 T02230203  RH  088%=      5-min Rain = 0
KWA1 271208Z 19002KT 22/20 A3019 RMK A01 T02230203  RH  088%=      5-min Rain = 0
KWA1 271209Z 19003KT 22/20 A3019 RMK A01 T02230203  RH  089%=      5-min Rain = 0
KWA1 271210Z 18002KT 22/20 A3019 RMK A01 T02230203  RH  088%=      5-min Rain = 0
KWA1 271211Z 18002KT 22/20 A3019 RMK A01 T02240203  RH  088%=      5-min Rain = 0
KWA1 271212Z 17002KT 22/20 A3019 RMK A01 T02230203  RH  088%=      5-min Rain = 0
KWA1 271213Z 17002KT 22/20 A3019 RMK A01 T02240203  RH  088%=      5-min Rain = 0
KWA1 271214Z 17002KT 22/20 A3019 RMK A01 T02230203  RH  088%=      5-min Rain = 0
KWA1 271215Z 17002KT 22/20 A3019 RMK A01 T02240204  RH  088%=      5-min Rain = 0
KWA1 271216Z 16001KT 22/20 A3019 RMK A01 T02230204  RH  089%=      5-min Rain = 0
KWA1 271217Z 16002KT 22/20 A3019 RMK A01 T02240204  RH  088%=      5-min Rain = 0
KWA1 271218Z 15001KT 22/20 A3019 RMK A01 T02230203  RH  088%=      5-min Rain = 0
KWA1 271219Z 15001KT 22/20 A3019 RMK A01 T02240204  RH  089%=      5-min Rain = 0
KWA1 271220Z 15001KT 22/20 A3019 RMK A01 T02240204  RH  089%=      5-min Rain = 0
KWA1 271221Z 14001KT 22/20 A3019 RMK A01 T02240204  RH  088%=      5-min Rain = 0
KWA1 271222Z 14001KT 22/20 A3019 RMK A01 T02240204  RH  088%=      5-min Rain = 0
KWA1 271223Z 12001KT 22/20 A3019 RMK A01 T02240203  RH  088%=      5-min Rain = 0
KWA1 271224Z 13002KT 22/20 A3019 RMK A01 T02240203  RH  088%=      5-min Rain = 0
KWA1 271225Z 12002KT 22/20 A3019 RMK A01 T02240204  RH  088%=      5-min Rain = 0
KWA1 271226Z 12002KT 22/20 A3019 RMK A01 T02240203  RH  088%=      5-min Rain = 0
KWA1 271227Z 11002KT 23/20 A3019 RMK A01 T02250204  RH  088%=      5-min Rain = 0
KWA1 271228Z 11002KT 23/20 A3019 RMK A01 T02250204  RH  088%=      5-min Rain = 0
KWA1 271229Z 10002KT 23/21 A302 RMK A01 T02260205  RH  088%=      5-min Rain = 0
KWA1 271230Z 10002KT 23/20 A302 RMK A01 T02260204  RH  087%=      5-min Rain = 0
KWA1 271231Z 11002KT 23/21 A302 RMK A01 T02270205  RH  087%=      5-min Rain = 0
KWA1 271232Z 11002KT 23/21 A302 RMK A01 T02280205  RH  087%=      5-min Rain = 0
KWA1 271233Z 10002KT 23/21 A3019 RMK A01 T02290205  RH  087%=      5-min Rain = 0
KWA1 271234Z 10002KT 23/21 A3019 RMK A01 T02290207  RH  087%=      5-min Rain = 0
KWA1 271235Z 10002KT 23/21 A302 RMK A01 T02300206  RH  087%=      5-min Rain = 0
KWA1 271236Z 10003KT 23/21 A302 RMK A01 T02300206  RH  086%=      5-min Rain = 0
KWA1 271237Z 10003KT 23/21 A302 RMK A01 T02300206  RH  087%=      5-min Rain = 0
KWA1 271238Z 09003KT 23/21 A302 RMK A01 T02300207  RH  087%=      5-min Rain = 0
KWA1 271239Z 09003KT 23/21 A302 RMK A01 T02300206  RH  086%=      5-min Rain = 0
KWA1 271240Z 09003KT 23/21 A302 RMK A01 T02300206  RH  086%=      5-min Rain = 0
KWA1 271241Z 09003KT 23/21 A302 RMK A01 T02300207  RH  087%=      5-min Rain = 0
KWA1 271242Z 10003KT 23/21 A302 RMK A01 T02300207  RH  087%=      5-min Rain = 0
KWA1 271243Z 10003KT 23/21 A302 RMK A01 T02300208  RH  087%=      5-min Rain = 0
KWA1 271244Z 10003KT 23/21 A302 RMK A01 T02310208  RH  087%=      5-min Rain = 0
KWA1 271245Z 10003KT 23/21 A302 RMK A01 T02310208  RH  087%=      5-min Rain = 0
KWA1 271246Z 12003KT 23/21 A302 RMK A01 T02320209  RH  087%=      5-min Rain = 0
KWA1 271247Z 12003KT 23/21 A302 RMK A01 T02320207  RH  086%=      5-min Rain = 0
KWA1 271248Z 13003KT 23/21 A302 RMK A01 T02330208  RH  086%=      5-min Rain = 0
KWA1 271249Z 13004KT 23/21 A302 RMK A01 T02330207  RH  085%=      5-min Rain = 0
KWA1 271250Z 13003KT 23/21 A302 RMK A01 T02340207  RH  085%=      5-min Rain = 0
KWA1 271251Z 14003KT 23/21 A302 RMK A01 T02340208  RH  085%=      5-min Rain = 0
KWA1 271252Z 14003KT 23/21 A302 RMK A01 T02340208  RH  085%=      5-min Rain = 0
KWA1 271253Z 13004KT 24/21 A302 RMK A01 T02350208  RH  085%=      5-min Rain = 0
KWA1 271254Z 14004KT 24/21 A302 RMK A01 T02350208  RH  085%=      5-min Rain = 0
KWA1 271255Z 14004KT 24/21 A302 RMK A01 T02350208  RH  085%=      5-min Rain = 0
KWA1 271256Z 14005KT 24/21 A302 RMK A01 T02350208  RH  085%=      5-min Rain = 0
KWA1 271257Z 14004KT 24/21 A302 RMK A01 T02360210  RH  085%=      5-min Rain = 0
KWA1 271258Z 15005KT 24/21 A302 RMK A01 T02370209  RH  085%=      5-min Rain = 0
KWA1 271259Z 15005KT 24/21 A302 RMK A01 T02370208  RH  084%=      5-min Rain = 0
KWA1 271300Z 15005KT 24/21 A302 RMK A01 T02370209  RH  084%=      5-min Rain = 0
KWA1 271301Z 15005KT 24/21 A302 RMK A01 T02370209  RH  084%=      5-min Rain = 0
KWA1 271302Z 14005KT 24/21 A302 RMK A01 T02370208  RH  084%=      5-min Rain = 0
KWA1 271303Z 15005KT 24/21 A302 RMK A01 T02370208  RH  083%=      5-min Rain = 0
KWA1 271304Z 14004KT 24/21 A302 RMK A01 T02370208  RH  084%=      5-min Rain = 0
KWA1 271305Z 14004KT 24/21 A302 RMK A01 T02380210  RH  084%=      5-min Rain = 0
KWA1 271306Z 14004KT 24/21 A302 RMK A01 T02390210  RH  084%=      5-min Rain = 0
KWA1 271307Z 14005KT 24/21 A302 RMK A01 T02390209  RH  083%=      5-min Rain = 0
KWA1 271308Z 14005KT 24/21 A302 RMK A01 T02390208  RH  083%=      5-min Rain = 0
KWA1 271309Z 14005KT 24/21 A3021 RMK A01 T02390209  RH  083%=      5-min Rain = 0
KWA1 271310Z 14006KT 24/21 A3021 RMK A01 T02390210  RH  084%=      5-min Rain = 0
KWA1 271311Z 14005KT 24/21 A3021 RMK A01 T02400208  RH  083%=      5-min Rain = 0
KWA1 271312Z 15005KT 24/21 A3021 RMK A01 T02400209  RH  083%=      5-min Rain = 0
KWA1 271313Z 14005KT 24/21 A3021 RMK A01 T02400209  RH  083%=      5-min Rain = 0
KWA1 271314Z 14005KT 24/21 A3021 RMK A01 T02400209  RH  083%=      5-min Rain = 0
KWA1 271315Z 14006KT 24/21 A3021 RMK A01 T02410210  RH  083%=      5-min Rain = 0
KWA1 271316Z 16005KT 24/21 A3021 RMK A01 T02410210  RH  083%=      5-min Rain = 0
KWA1 271317Z 15006KT 24/21 A3021 RMK A01 T02420209  RH  082%=      5-min Rain = 0
KWA1 271318Z 14005KT 24/21 A3021 RMK A01 T02420210  RH  082%=      5-min Rain = 0
KWA1 271319Z 14006KT 24/21 A3021 RMK A01 T02420210  RH  082%=      5-min Rain = 0
KWA1 271320Z 15007KT 24/21 A3021 RMK A01 T02430210  RH  082%=      5-min Rain = 0
KWA1 271321Z 14007KT 24/21 A3021 RMK A01 T02430209  RH  081%=      5-min Rain = 0
KWA1 271322Z 15008KT 24/21 A3021 RMK A01 T02430209  RH  082%=      5-min Rain = 0
KWA1 271323Z 15007KT 24/21 A3021 RMK A01 T02430210  RH  082%=      5-min Rain = 0
KWA1 271324Z 15008KT 24/21 A302 RMK A01 T02430210  RH  082%=      5-min Rain = 0
KWA1 271325Z 15008KT 24/21 A302 RMK A01 T02440211  RH  082%=      5-min Rain = 0
KWA1 271326Z 15009KT 24/21 A302 RMK A01 T02440211  RH  082%=      5-min Rain = 0
KWA1 271327Z 16009KT 24/21 A302 RMK A01 T02440210  RH  081%=      5-min Rain = 0
KWA1 271328Z 17008KT 25/21 A302 RMK A01 T02450211  RH  081%=      5-min Rain = 0
KWA1 271329Z 16006KT 25/21 A302 RMK A01 T02450212  RH  082%=      5-min Rain = 0
KWA1 271330Z 17009KT 25/21 A302 RMK A01 T02460211  RH  081%=      5-min Rain = 0
KWA1 271331Z 17010KT 25/21 A302 RMK A01 T02460211  RH  081%=      5-min Rain = 0
KWA1 271332Z 16010KT 25/21 A302 RMK A01 T02460210  RH  080%=      5-min Rain = 0
KWA1 271333Z 16009KT 25/21 A302 RMK A01 T02460210  RH  080%=      5-min Rain = 0
KWA1 271334Z 16009KT 25/21 A302 RMK A01 T02470211  RH  080%=      5-min Rain = 0
KWA1 271335Z 16010KT 25/21 A302 RMK A01 T02480211  RH  080%=      5-min Rain = 0
KWA1 271336Z 15010KT 25/21 A302 RMK A01 T02480211  RH  080%=      5-min Rain = 0
KWA1 271337Z 16009KT 25/21 A302 RMK A01 T02480211  RH  080%=      5-min Rain = 0
KWA1 271338Z 17010KT 25/21 A302 RMK A01 T02490212  RH  080%=      5-min Rain = 0
KWA1 271339Z 16010KT 25/21 A302 RMK A01 T02500212  RH  080%=      5-min Rain = 0
KWA1 271340Z 16009KT 25/21 A302 RMK A01 T02500212  RH  079%=      5-min Rain = 0
KWA1 271341Z 17009KT 25/21 A302 RMK A01 T02510213  RH  079%=      5-min Rain = 0
KWA1 271342Z 17009KT 25/21 A302 RMK A01 T02510212  RH  079%=      5-min Rain = 0
KWA1 271343Z 16011KT 25/21 A302 RMK A01 T02510211  RH  079%=      5-min Rain = 0
KWA1 271344Z 16012KT 25/21 A302 RMK A01 T02510210  RH  078%=      5-min Rain = 0
KWA1 271345Z 17011KT 25/21 A302 RMK A01 T02510211  RH  078%=      5-min Rain = 0
KWA1 271346Z 16012KT 25/21 A302 RMK A01 T02520210  RH  078%=      5-min Rain = 0
KWA1 271347Z 17011KT 25/21 A302 RMK A01 T02520210  RH  077%=      5-min Rain = 0
KWA1 271348Z 18012KT 25/21 A302 RMK A01 T02530210  RH  077%=      5-min Rain = 0
KWA1 271349Z 18011KT 25/21 A302 RMK A01 T02530209  RH  077%=      5-min Rain = 0
KWA1 271350Z 17009KT 25/21 A3021 RMK A01 T02540211  RH  077%=      5-min Rain = 0
KWA1 271351Z 16010KT 25/21 A3021 RMK A01 T02540211  RH  077%=      5-min Rain = 0
KWA1 271352Z 17011KT 26/21 A3021 RMK A01 T02550211  RH  077%=      5-min Rain = 0
KWA1 271353Z 18012KT 26/21 A3021 RMK A01 T02560212  RH  076%=      5-min Rain = 0
KWA1 271354Z 17011KT 26/21 A3021 RMK A01 T02560209  RH  075%=      5-min Rain = 0
KWA1 271355Z 18011KT 26/21 A3021 RMK A01 T02560207  RH  074%=      5-min Rain = 0
KWA1 271356Z 19011KT 26/21 A3021 RMK A01 T02560208  RH  074%=      5-min Rain = 0
KWA1 271357Z 18009KT 26/21 A3021 RMK A01 T02570209  RH  075%=      5-min Rain = 0
KWA1 271358Z 18011KT 26/21 A3021 RMK A01 T02580210  RH  075%=      5-min Rain = 0
KWA1 271359Z 17011KT 26/21 A3021 RMK A01 T02590210  RH  074%=      5-min Rain = 0
KWA1 271400Z 18012KT 26/21 A3021 RMK A01 T02610210  RH  074%=      5-min Rain = 0
KWA1 271401Z 18012KT 26/21 A3021 RMK A01 T02610208  RH  072%=      5-min Rain = 0
KWA1 271402Z 18011KT 26/21 A3021 RMK A01 T02600208  RH  073%=      5-min Rain = 0
KWA1 271403Z 18010KT 26/21 A3021 RMK A01 T02600210  RH  074%=      5-min Rain = 0
KWA1 271404Z 17011KT 26/21 A3021 RMK A01 T02610210  RH  073%=      5-min Rain = 0
KWA1 271405Z 16013KT 26/21 A3021 RMK A01 T02610206  RH  072%=      5-min Rain = 0
KWA1 271406Z 17013KT 26/21 A3021 RMK A01 T02610206  RH  072%=      5-min Rain = 0
KWA1 271407Z 17012G17KT 26/21 A3021 RMK A01 T02600206  RH  072%=      5-min Rain = 0
KWA1 271408Z 17014KT 26/21 A3021 RMK A01 T02600207  RH  072%=      5-min Rain = 0
KWA1 271409Z 17013KT 26/21 A3021 RMK A01 T02610206  RH  072%=      5-min Rain = 0
KWA1 271410Z 18011KT 26/21 A3021 RMK A01 T02620209  RH  073%=      5-min Rain = 0
KWA1 271411Z 17011KT 26/21 A3021 RMK A01 T02630209  RH  072%=      5-min Rain = 0
KWA1 271412Z 18011KT 26/21 A3021 RMK A01 T02630208  RH  072%=      5-min Rain = 0
KWA1 271413Z 17012KT 26/21 A3021 RMK A01 T02630209  RH  072%=      5-min Rain = 0
KWA1 271414Z 16013KT 26/21 A3021 RMK A01 T02630208  RH  071%=      5-min Rain = 0
KWA1 271415Z 17013KT 26/21 A3021 RMK A01 T02640207  RH  071%=      5-min Rain = 0
KWA1 271416Z 18010KT 26/21 A3021 RMK A01 T02630207  RH  071%=      5-min Rain = 0
KWA1 271417Z 18010KT 26/21 A3021 RMK A01 T02640209  RH  071%=      5-min Rain = 0
KWA1 271418Z 18011KT 27/21 A3021 RMK A01 T02650207  RH  070%=      5-min Rain = 0
KWA1 271419Z 18010KT 27/21 A3021 RMK A01 T02660207  RH  070%=      5-min Rain = 0
KWA1 271420Z 19011KT 27/21 A3021 RMK A01 T02660207  RH  070%=      5-min Rain = 0
KWA1 271421Z 19011KT 27/21 A3021 RMK A01 T02660205  RH  069%=      5-min Rain = 0
KWA1 271422Z 19011KT 27/21 A3021 RMK A01 T02660207  RH  070%=      5-min Rain = 0
KWA1 271423Z 18010G15KT 27/21 A3021 RMK A01 T02680208  RH  070%=      5-min Rain = 0
KWA1 271424Z 17012KT 27/21 A3021 RMK A01 T02690208  RH  069%=      5-min Rain = 0
KWA1 271425Z 18012KT 27/21 A3021 RMK A01 T02690208  RH  069%=      5-min Rain = 0
KWA1 271426Z 18011KT 27/21 A3021 RMK A01 T02690209  RH  070%=      5-min Rain = 0
KWA1 271427Z 16012KT 27/21 A3021 RMK A01 T02690209  RH  069%=      5-min Rain = 0
KWA1 271428Z 17013KT 27/21 A3021 RMK A01 T02690208  RH  069%=      5-min Rain = 0
KWA1 271429Z 18010KT 27/21 A3021 RMK A01 T02690208  RH  069%=      5-min Rain = 0
KWA1 271430Z 16013KT 27/21 A3021 RMK A01 T02700209  RH  069%=      5-min Rain = 0
KWA1 271431Z 17012KT 27/21 A3021 RMK A01 T02700205  RH  068%=      5-min Rain = 0
KWA1 271432Z 17012KT 27/21 A3021 RMK A01 T02670205  RH  068%=      5-min Rain = 0
KWA1 271433Z 17011KT 27/21 A3021 RMK A01 T02670207  RH  069%=      5-min Rain = 0
KWA1 271434Z 16011KT 27/21 A3021 RMK A01 T02690206  RH  068%=      5-min Rain = 0
KWA1 271435Z 16012KT 27/21 A3021 RMK A01 T02690206  RH  068%=      5-min Rain = 0
KWA1 271436Z 16013KT 27/21 A3021 RMK A01 T02690206  RH  068%=      5-min Rain = 0
KWA1 271437Z 17012KT 27/21 A3021 RMK A01 T02690208  RH  069%=      5-min Rain = 0
KWA1 271438Z 17012KT 27/21 A3021 RMK A01 T02700207  RH  068%=      5-min Rain = 0
KWA1 271439Z 17012KT 27/21 A3021 RMK A01 T02700207  RH  068%=      5-min Rain = 0
KWA1 271440Z 17012KT 27/21 A3021 RMK A01 T02700207  RH  069%=      5-min Rain = 0
KWA1 271441Z 18011KT 27/21 A3021 RMK A01 T02710205  RH  067%=      5-min Rain = 0
KWA1 271442Z 18013KT 27/21 A3021 RMK A01 T02720206  RH  068%=      5-min Rain = 0
KWA1 271443Z 17013KT 27/21 A3021 RMK A01 T02720205  RH  066%=      5-min Rain = 0
KWA1 271444Z 17011KT 27/21 A3021 RMK A01 T02720206  RH  067%=      5-min Rain = 0
KWA1 271445Z 18009KT 27/21 A3021 RMK A01 T02720206  RH  067%=      5-min Rain = 0
KWA1 271446Z 17009KT 27/21 A3021 RMK A01 T02710209  RH  069%=      5-min Rain = 0
KWA1 271447Z 17012KT 27/21 A3021 RMK A01 T02730208  RH  068%=      5-min Rain = 0
KWA1 271448Z 16012KT 27/21 A3021 RMK A01 T02730206  RH  067%=      5-min Rain = 0
KWA1 271449Z 16011KT 27/21 A3021 RMK A01 T02720206  RH  067%=      5-min Rain = 0
KWA1 271450Z 16011KT 27/21 A3021 RMK A01 T02720205  RH  067%=      5-min Rain = 0
KWA1 271451Z 17012KT 27/21 A3021 RMK A01 T02720205  RH  067%=      5-min Rain = 0
KWA1 271452Z 17012KT 27/20 A3021 RMK A01 T02710204  RH  067%=      5-min Rain = 0
KWA1 271453Z 18013KT 27/21 A3021 RMK A01 T02720205  RH  067%=      5-min Rain = 0
KWA1 271454Z 17013KT 27/20 A3021 RMK A01 T02730204  RH  066%=      5-min Rain = 0
KWA1 271455Z 16013KT 27/21 A3021 RMK A01 T02740205  RH  066%=      5-min Rain = 0
KWA1 271456Z 16011KT 28/20 A3021 RMK A01 T02750204  RH  065%=      5-min Rain = 0
KWA1 271457Z 16014KT 28/20 A3021 RMK A01 T02750203  RH  065%=      5-min Rain = 0
KWA1 271458Z 17011KT 28/20 A3021 RMK A01 T02760203  RH  065%=      5-min Rain = 0
KWA1 271459Z 17011KT 28/21 A3021 RMK A01 T02760205  RH  065%=      5-min Rain = 0
KWA1 271500Z 18014KT 28/21 A3021 RMK A01 T02780205  RH  065%=      5-min Rain = 0
KWA1 271501Z 17013KT 28/21 A3021 RMK A01 T02780205  RH  064%=      5-min Rain = 0
KWA1 271502Z 16011KT 28/20 A3021 RMK A01 T02780202  RH  063%=      5-min Rain = 0
KWA1 271503Z 17012KT 28/20 A3021 RMK A01 T02770204  RH  064%=      5-min Rain = 0
KWA1 271504Z 17011KT 28/21 A3021 RMK A01 T02770205  RH  065%=      5-min Rain = 0
KWA1 271505Z 17014KT 28/21 A3021 RMK A01 T02790206  RH  064%=      5-min Rain = 0
KWA1 271506Z 17013KT 28/20 A3021 RMK A01 T02800204  RH  063%=      5-min Rain = 0
KWA1 271507Z 17011KT 28/21 A3021 RMK A01 T02800205  RH  064%=      5-min Rain = 0
KWA1 271508Z 17013KT 28/20 A3021 RMK A01 T02790204  RH  064%=      5-min Rain = 0
KWA1 271509Z 16010KT 28/20 A3021 RMK A01 T02780203  RH  064%=      5-min Rain = 0
KWA1 271510Z 16012KT 28/21 A3021 RMK A01 T02770205  RH  065%=      5-min Rain = 0
KWA1 271511Z 17012KT 28/21 A3021 RMK A01 T02770205  RH  065%=      5-min Rain = 0
KWA1 271512Z 17012KT 28/21 A3021 RMK A01 T02790206  RH  065%=      5-min Rain = 0
KWA1 271513Z 16011KT 28/21 A3021 RMK A01 T02790205  RH  064%=      5-min Rain = 0
KWA1 271514Z 17011KT 28/20 A3021 RMK A01 T02790203  RH  063%=      5-min Rain = 0
KWA1 271515Z 17011KT 28/20 A3021 RMK A01 T02790204  RH  064%=      5-min Rain = 0
KWA1 271516Z 17010KT 28/21 A3021 RMK A01 T02790205  RH  064%=      5-min Rain = 0
KWA1 271517Z 18011KT 28/21 A3021 RMK A01 T02800205  RH  064%=      5-min Rain = 0
KWA1 271518Z 17011KT 28/21 A3021 RMK A01 T02810206  RH  064%=      5-min Rain = 0
KWA1 271519Z 18010KT 28/21 A3021 RMK A01 T02820205  RH  063%=      5-min Rain = 0
KWA1 271520Z 18012KT 28/21 A3021 RMK A01 T02810205  RH  063%=      5-min Rain = 0
KWA1 271521Z 17010KT 28/20 A3021 RMK A01 T02790203  RH  063%=      5-min Rain = 0
KWA1 271522Z 16008KT 28/21 A3021 RMK A01 T02770206  RH  065%=      5-min Rain = 0
KWA1 271523Z 17007KT 28/21 A3021 RMK A01 T02780209  RH  066%=      5-min Rain = 0
KWA1 271524Z 19009KT 28/21 A3021 RMK A01 T02810206  RH  063%=      5-min Rain = 0
KWA1 271525Z 16012KT 28/21 A3021 RMK A01 T02830208  RH  064%=      5-min Rain = 0
KWA1 271526Z 14011KT 28/21 A3021 RMK A01 T02820205  RH  063%=      5-min Rain = 0
KWA1 271527Z 14009KT 28/20 A3021 RMK A01 T02800203  RH  063%=      5-min Rain = 0
KWA1 271528Z 15009KT 28/20 A3021 RMK A01 T02790204  RH  064%=      5-min Rain = 0
KWA1 271529Z 16011KT 28/21 A3021 RMK A01 T02790205  RH  064%=      5-min Rain = 0
KWA1 271530Z 15014KT 28/21 A3021 RMK A01 T02810207  RH  064%=      5-min Rain = 0
KWA1 271531Z 15010KT 28/21 A3021 RMK A01 T02830205  RH  063%=      5-min Rain = 0
KWA1 271532Z 15010KT 28/21 A3021 RMK A01 T02830207  RH  063%=      5-min Rain = 0
KWA1 271533Z 17009KT 28/20 A3021 RMK A01 T02830204  RH  062%=      5-min Rain = 0
KWA1 271534Z 16011KT 28/21 A3021 RMK A01 T02830207  RH  064%=      5-min Rain = 0
KWA1 271535Z 16014KT 29/21 A3021 RMK A01 T02850205  RH  062%=      5-min Rain = 0
KWA1 271536Z 17015KT 29/20 A3021 RMK A01 T02850204  RH  061%=      5-min Rain = 0
KWA1 271537Z 16012KT 28/20 A3021 RMK A01 T02840202  RH  061%=      5-min Rain = 0
KWA1 271538Z 16009KT 28/20 A3021 RMK A01 T02830203  RH  062%=      5-min Rain = 0
KWA1 271539Z 15011KT 28/20 A3021 RMK A01 T02830202  RH  062%=      5-min Rain = 0
KWA1 271540Z 17011KT 28/21 A3021 RMK A01 T02830206  RH  063%=      5-min Rain = 0
KWA1 271541Z 16010KT 29/21 A3021 RMK A01 T02860209  RH  063%=      5-min Rain = 0
KWA1 271542Z 17011KT 29/21 A3021 RMK A01 T02880207  RH  062%=      5-min Rain = 0
KWA1 271543Z 18009KT 29/20 A3021 RMK A01 T02860204  RH  061%=      5-min Rain = 0
KWA1 271544Z 16009KT 28/21 A3021 RMK A01 T02840207  RH  063%=      5-min Rain = 0
KWA1 271545Z 16011KT 28/21 A3021 RMK A01 T02830207  RH  063%=      5-min Rain = 0
KWA1 271546Z 18010KT 28/21 A3021 RMK A01 T02830205  RH  062%=      5-min Rain = 0
KWA1 271547Z 17009KT 28/21 A3021 RMK A01 T02830205  RH  063%=      5-min Rain = 0
KWA1 271548Z 17012KT 28/21 A3021 RMK A01 T02840209  RH  064%=      5-min Rain = 0
KWA1 271549Z 18011KT 29/21 A3021 RMK A01 T02870209  RH  063%=      5-min Rain = 0
KWA1 271550Z 19008KT 29/20 A3021 RMK A01 T02870204  RH  061%=      5-min Rain = 0
KWA1 271551Z 17007KT 29/21 A3021 RMK A01 T02860210  RH  064%=      5-min Rain = 0
KWA1 271552Z 15008KT 29/21 A3021 RMK A01 T02880208  RH  062%=      5-min Rain = 0
KWA1 271553Z 16011KT 29/21 A3021 RMK A01 T02890208  RH  062%=      5-min Rain = 0
KWA1 271554Z 17011KT 29/21 A3021 RMK A01 T02880207  RH  061%=      5-min Rain = 0
KWA1 271555Z 18011KT 29/21 A3021 RMK A01 T02870207  RH  062%=      5-min Rain = 0
KWA1 271556Z 18010KT 29/21 A3021 RMK A01 T02870206  RH  062%=      5-min Rain = 0
KWA1 271557Z 17010KT 29/21 A3021 RMK A01 T02870207  RH  062%=      5-min Rain = 0
KWA1 271558Z 18010KT 29/21 A3021 RMK A01 T02850206  RH  062%=      5-min Rain = 0
KWA1 271559Z 15011KT 29/20 A3021 RMK A01 T02850204  RH  062%=      5-min Rain = 0
KWA1 271600Z 16011KT 29/21 A3021 RMK A01 T02850205  RH  062%=      5-min Rain = 0
KWA1 271601Z 17013KT 29/20 A3021 RMK A01 T02860204  RH  061%=      5-min Rain = 0
KWA1 271602Z 17011KT 29/20 A3021 RMK A01 T02860202  RH  061%=      5-min Rain = 0
KWA1 271603Z 18012KT 29/20 A3021 RMK A01 T02850203  RH  061%=      5-min Rain = 0
KWA1 271604Z 19011KT 28/20 A3021 RMK A01 T02840201  RH  061%=      5-min Rain = 0
KWA1 271605Z 18010KT 28/20 A3021 RMK A01 T02820200  RH  061%=      5-min Rain = 0
KWA1 271606Z 18010KT 28/20 A3021 RMK A01 T02810202  RH  062%=      5-min Rain = 0
KWA1 271607Z 18010KT 28/20 A3021 RMK A01 T02810202  RH  062%=      5-min Rain = 0
KWA1 271608Z 17011KT 28/20 A3021 RMK A01 T02830203  RH  062%=      5-min Rain = 0
KWA1 271609Z 18011KT 28/20 A3021 RMK A01 T02830203  RH  062%=      5-min Rain = 0
KWA1 271610Z 17011KT 28/20 A3021 RMK A01 T02820203  RH  062%=      5-min Rain = 0
KWA1 271611Z 18010KT 28/20 A3021 RMK A01 T02810203  RH  062%=      5-min Rain = 0
KWA1 271612Z 19010KT 28/20 A3021 RMK A01 T02810201  RH  062%=      5-min Rain = 0
KWA1 271613Z 19010KT 28/20 A3021 RMK A01 T02820203  RH  062%=      5-min Rain = 0
KWA1 271614Z 19011KT 28/20 A3021 RMK A01 T02830202  RH  061%=      5-min Rain = 0
KWA1 271615Z 19012KT 28/20 A3021 RMK A01 T02830203  RH  062%=      5-min Rain = 0
KWA1 271616Z 19013KT 29/20 A3021 RMK A01 T02860201  RH  060%=      5-min Rain = 0
KWA1 271617Z 18010KT 29/20 A3021 RMK A01 T02860203  RH  061%=      5-min Rain = 0
KWA1 271618Z 15012KT 29/21 A3021 RMK A01 T02880205  RH  061%=      5-min Rain = 0
KWA1 271619Z 15012KT 29/20 A3021 RMK A01 T02900204  RH  060%=      5-min Rain = 0
KWA1 271620Z 14011KT 29/20 A3021 RMK A01 T02890202  RH  059%=      5-min Rain = 0
KWA1 271621Z 14011KT 29/20 A3021 RMK A01 T02870202  RH  060%=      5-min Rain = 0
KWA1 271622Z 16012KT 29/20 A3021 RMK A01 T02860204  RH  061%=      5-min Rain = 0
KWA1 271623Z 18012KT 29/20 A3021 RMK A01 T02860203  RH  061%=      5-min Rain = 0
KWA1 271624Z 17009KT 29/20 A3021 RMK A01 T02870204  RH  061%=      5-min Rain = 0
KWA1 271625Z 16008KT 29/21 A3021 RMK A01 T02880207  RH  061%=      5-min Rain = 0
KWA1 271626Z 18013KT 29/21 A3021 RMK A01 T02900206  RH  061%=      5-min Rain = 0
KWA1 271627Z 16012KT 29/20 A3021 RMK A01 T02900201  RH  059%=      5-min Rain = 0
KWA1 271628Z 17012KT 29/20 A3021 RMK A01 T02880203  RH  060%=      5-min Rain = 0
KWA1 271629Z 17010KT 29/20 A3021 RMK A01 T02880202  RH  060%=      5-min Rain = 0
KWA1 271630Z 18011KT 29/20 A3021 RMK A01 T02870202  RH  060%=      5-min Rain = 0
KWA1 271631Z 16011KT 29/21 A3021 RMK A01 T02880206  RH  061%=      5-min Rain = 0
KWA1 271632Z 16011KT 29/20 A3021 RMK A01 T02910204  RH  059%=      5-min Rain = 0
KWA1 271633Z 18011KT 29/20 A3021 RMK A01 T02910203  RH  059%=      5-min Rain = 0
KWA1 271634Z 16010KT 29/21 A3021 RMK A01 T02910205  RH  060%=      5-min Rain = 0
KWA1 271635Z 16009KT 29/20 A3021 RMK A01 T02900202  RH  059%=      5-min Rain = 0
KWA1 271636Z 17009KT 29/20 A3021 RMK A01 T02890202  RH  059%=      5-min Rain = 0
KWA1 271637Z 17009KT 29/21 A3021 RMK A01 T02890207  RH  061%=      5-min Rain = 0
KWA1 271638Z 17012KT 29/21 A3021 RMK A01 T02940209  RH  060%=      5-min Rain = 0
KWA1 271639Z 16014KT 30/21 A3021 RMK A01 T02980209  RH  059%=      5-min Rain = 0
KWA1 271640Z 17012KT 30/21 A3021 RMK A01 T02990207  RH  058%=      5-min Rain = 0
KWA1 271641Z 18011KT 30/21 A3021 RMK A01 T02990206  RH  057%=      5-min Rain = 0
KWA1 271642Z 17010KT 30/21 A3021 RMK A01 T02970205  RH  058%=      5-min Rain = 0
KWA1 271643Z 17010KT 30/21 A3021 RMK A01 T02970210  RH  059%=      5-min Rain = 0
KWA1 271644Z 16011KT 30/21 A3021 RMK A01 T03010211  RH  059%=      5-min Rain = 0
KWA1 271645Z 17012KT 30/21 A3021 RMK A01 T03020207  RH  057%=      5-min Rain = 0
KWA1 271646Z 18013KT 30/20 A3021 RMK A01 T02980203  RH  057%=      5-min Rain = 0
KWA1 271647Z 18013KT 29/20 A3021 RMK A01 T02940202  RH  058%=      5-min Rain = 0
KWA1 271648Z 18013KT 29/20 A3021 RMK A01 T02940203  RH  058%=      5-min Rain = 0
KWA1 271649Z 18013KT 29/20 A3021 RMK A01 T02930202  RH  058%=      5-min Rain = 0
KWA1 271650Z 18013KT 29/20 A3021 RMK A01 T02920196  RH  056%=      5-min Rain = 0
KWA1 271651Z 17011KT 29/20 A3021 RMK A01 T02900200  RH  058%=      5-min Rain = 0
KWA1 271652Z 17012KT 29/20 A3021 RMK A01 T02910202  RH  059%=      5-min Rain = 0
KWA1 271653Z 17013KT 29/20 A3021 RMK A01 T02910202  RH  059%=      5-min Rain = 0
KWA1 271654Z 17012KT 29/20 A3021 RMK A01 T02920203  RH  059%=      5-min Rain = 0
KWA1 271655Z 16009KT 29/20 A3021 RMK A01 T02930201  RH  058%=      5-min Rain = 0
KWA1 271656Z 18009KT 29/20 A302 RMK A01 T02930203  RH  059%=      5-min Rain = 0
KWA1 271657Z 19011KT 29/20 A302 RMK A01 T02940204  RH  058%=      5-min Rain = 0
KWA1 271658Z 19012KT 30/20 A302 RMK A01 T02970204  RH  057%=      5-min Rain = 0
KWA1 271659Z 17012KT 30/21 A302 RMK A01 T02990206  RH  057%=      5-min Rain = 0
KWA1 271700Z 15014KT 30/21 A302 RMK A01 T03020207  RH  057%=      5-min Rain = 0
KWA1 271701Z 16014KT 30/21 A302 RMK A01 T03040206  RH  056%=      5-min Rain = 0
KWA1 271702Z 18010KT 31/21 A302 RMK A01 T03050210  RH  057%=      5-min Rain = 0
KWA1 271703Z 16010KT 31/21 A3021 RMK A01 T03080210  RH  056%=      5-min Rain = 0
KWA1 271704Z 17011KT 31/21 A3021 RMK A01 T03090209  RH  055%=      5-min Rain = 0
KWA1 271705Z 18010KT 31/21 A3021 RMK A01 T03090206  RH  054%=      5-min Rain = 0
KWA1 271706Z 18008KT 30/20 A3021 RMK A01 T03020201  RH  055%=      5-min Rain = 0
KWA1 271707Z 18011KT 30/20 A3021 RMK A01 T02980203  RH  057%=      5-min Rain = 0
KWA1 271708Z 16015KT 30/20 A3021 RMK A01 T03000204  RH  056%=      5-min Rain = 0
KWA1 271709Z 15013KT 30/20 A3021 RMK A01 T03020202  RH  055%=      5-min Rain = 0
KWA1 271710Z 15012KT 30/20 A302 RMK A01 T03020203  RH  056%=      5-min Rain = 0
KWA1 271711Z 16013KT 30/21 A302 RMK A01 T03040205  RH  055%=      5-min Rain = 0
KWA1 271712Z 17011KT 31/21 A3021 RMK A01 T03050205  RH  055%=      5-min Rain = 0
KWA1 271713Z 15012KT 31/20 A3021 RMK A01 T03050203  RH  054%=      5-min Rain = 0
KWA1 271714Z 16011KT 30/20 A3021 RMK A01 T03040204  RH  055%=      5-min Rain = 0
KWA1 271715Z 16011KT 30/20 A3021 RMK A01 T03030204  RH  055%=      5-min Rain = 0
KWA1 271716Z 17012KT 30/20 A3021 RMK A01 T03030204  RH  055%=      5-min Rain = 0
KWA1 271717Z 18011KT 30/20 A3021 RMK A01 T03030204  RH  055%=      5-min Rain = 0
KWA1 271718Z 17011KT 30/20 A302 RMK A01 T03030204  RH  055%=      5-min Rain = 0
KWA1 271719Z 17014KT 30/20 A302 RMK A01 T03040204  RH  055%=      5-min Rain = 0
KWA1 271720Z 17017KT 30/20 A302 RMK A01 T03030202  RH  055%=      5-min Rain = 0
KWA1 271721Z 17015KT 30/20 A302 RMK A01 T03010199  RH  055%=      5-min Rain = 0
KWA1 271722Z 17012KT 30/20 A302 RMK A01 T02990200  RH  055%=      5-min Rain = 0
KWA1 271723Z 17012KT 30/20 A302 RMK A01 T03000202  RH  056%=      5-min Rain = 0
KWA1 271724Z 17010KT 30/21 A302 RMK A01 T03020206  RH  056%=      5-min Rain = 0
KWA1 271725Z 18013KT 31/21 A302 RMK A01 T03060205  RH  055%=      5-min Rain = 0
KWA1 271726Z 18012KT 31/20 A302 RMK A01 T03070203  RH  054%=      5-min Rain = 0
KWA1 271727Z 17012KT 31/20 A302 RMK A01 T03060204  RH  055%=      5-min Rain = 0
KWA1 271728Z 17012KT 31/21 A302 RMK A01 T03080208  RH  055%=      5-min Rain = 0
KWA1 271729Z 18013KT 31/20 A302 RMK A01 T03080202  RH  053%=      5-min Rain = 0
KWA1 271730Z 19011KT 31/20 A302 RMK A01 T03070203  RH  054%=      5-min Rain = 0
KWA1 271731Z 19012KT 31/20 A302 RMK A01 T03090201  RH  052%=      5-min Rain = 0
KWA1 271732Z 18010KT 31/20 A302 RMK A01 T03090200  RH  052%=      5-min Rain = 0
KWA1 271733Z 15009KT 31/20 A302 RMK A01 T03070201  RH  053%=      5-min Rain = 0
KWA1 271734Z 18009KT 31/20 A302 RMK A01 T03050204  RH  055%=      5-min Rain = 0
KWA1 271735Z 17010KT 31/21 A302 RMK A01 T03070205  RH  054%=      5-min Rain = 0
KWA1 271736Z 18010KT 31/20 A302 RMK A01 T03070202  RH  053%=      5-min Rain = 0
KWA1 271737Z 18011KT 31/20 A302 RMK A01 T03050203  RH  055%=      5-min Rain = 0
KWA1 271738Z 18011KT 31/20 A302 RMK A01 T03050202  RH  054%=      5-min Rain = 0
KWA1 271739Z 18010KT 30/20 A302 RMK A01 T03040204  RH  055%=      5-min Rain = 0
KWA1 271740Z 17009KT 31/20 A302 RMK A01 T03050204  RH  055%=      5-min Rain = 0
KWA1 271741Z 17008KT 30/20 A302 RMK A01 T03040202  RH  055%=      5-min Rain = 0
KWA1 271742Z 16009KT 30/20 A302 RMK A01 T03020203  RH  055%=      5-min Rain = 0
KWA1 271743Z 16009KT 30/20 A302 RMK A01 T03010202  RH  055%=      5-min Rain = 0
KWA1 271744Z 16006KT 30/20 A302 RMK A01 T03010204  RH  056%=      5-min Rain = 0
KWA1 271745Z 17007KT 30/20 A302 RMK A01 T03000203  RH  056%=      5-min Rain = 0
KWA1 271746Z 15012KT 30/20 A302 RMK A01 T03010203  RH  056%=      5-min Rain = 0
KWA1 271747Z 16012KT 30/20 A302 RMK A01 T03030203  RH  055%=      5-min Rain = 0
KWA1 271748Z 15012KT 31/20 A302 RMK A01 T03050202  RH  054%=      5-min Rain = 0
KWA1 271749Z 14012KT 31/20 A302 RMK A01 T03050202  RH  054%=      5-min Rain = 0
KWA1 271750Z 14011KT 30/20 A302 RMK A01 T03030200  RH  054%=      5-min Rain = 0
KWA1 271751Z 12011KT 30/20 A302 RMK A01 T03010200  RH  055%=      5-min Rain = 0
KWA1 271752Z 12010KT 30/20 A302 RMK A01 T03010199  RH  054%=      5-min Rain = 0
KWA1 271753Z 13009KT 30/20 A302 RMK A01 T02990199  RH  055%=      5-min Rain = 0
KWA1 271754Z 15008KT 30/20 A302 RMK A01 T02980201  RH  056%=      5-min Rain = 0
KWA1 271755Z 17009KT 30/20 A302 RMK A01 T02980203  RH  057%=      5-min Rain = 0
KWA1 271756Z 18010KT 30/20 A302 RMK A01 T02990202  RH  056%=      5-min Rain = 0
KWA1 271757Z 18011KT 30/20 A302 RMK A01 T03000204  RH  056%=      5-min Rain = 0
KWA1 271758Z 17011KT 30/20 A302 RMK A01 T03010204  RH  056%=      5-min Rain = 0
KWA1 271759Z 17007KT 30/21 A302 RMK A01 T03030205  RH  056%=      5-min Rain = 0
KWA1 271800Z 17008KT 30/21 A302 RMK A01 T03030205  RH  056%=      5-min Rain = 0
KWA1 271801Z 16008KT 30/21 A302 RMK A01 T03020205  RH  056%=      5-min Rain = 0
KWA1 271802Z 17008KT 30/21 A302 RMK A01 T03020207  RH  057%=      5-min Rain = 0
KWA1 271803Z 16008KT 30/21 A302 RMK A01 T03030208  RH  057%=      5-min Rain = 0
KWA1 271804Z 17008KT 31/21 A302 RMK A01 T03060209  RH  056%=      5-min Rain = 0
KWA1 271805Z 18013KT 31/21 A302 RMK A01 T03080208  RH  055%=      5-min Rain = 0
KWA1 271806Z 18009KT 31/20 A302 RMK A01 T03080204  RH  054%=      5-min Rain = 0
KWA1 271807Z 18009KT 31/20 A3019 RMK A01 T03060203  RH  054%=      5-min Rain = 0
KWA1 271808Z 17010KT 31/21 A3019 RMK A01 T03050206  RH  055%=      5-min Rain = 0
KWA1 271809Z 17011KT 31/21 A3019 RMK A01 T03090210  RH  056%=      5-min Rain = 0
KWA1 271810Z 18009KT 31/21 A3019 RMK A01 T03130207  RH  053%=      5-min Rain = 0
KWA1 271811Z 18008KT 31/21 A3019 RMK A01 T03130205  RH  053%=      5-min Rain = 0
KWA1 271812Z 17010KT 31/21 A3019 RMK A01 T03120206  RH  053%=      5-min Rain = 0
KWA1 271813Z 16013KT 31/21 A3019 RMK A01 T03120206  RH  053%=      5-min Rain = 0
KWA1 271814Z 16013KT 32/21 A3019 RMK A01 T03150207  RH  053%=      5-min Rain = 0
KWA1 271815Z 18010KT 32/21 A3019 RMK A01 T03160209  RH  053%=      5-min Rain = 0
KWA1 271816Z 17011KT 32/21 A3019 RMK A01 T03200208  RH  052%=      5-min Rain = 0
KWA1 271817Z 15014KT 32/21 A3019 RMK A01 T03200208  RH  052%=      5-min Rain = 0
KWA1 271818Z 14012KT 32/21 A3019 RMK A01 T03170205  RH  052%=      5-min Rain = 0
KWA1 271819Z 16013KT 31/21 A3019 RMK A01 T03140206  RH  053%=      5-min Rain = 0
KWA1 271820Z 15010KT 31/20 A3019 RMK A01 T03120204  RH  052%=      5-min Rain = 0
KWA1 271821Z 14010KT 31/21 A3019 RMK A01 T03130206  RH  053%=      5-min Rain = 0
KWA1 271822Z 15008KT 31/21 A3019 RMK A01 T03130207  RH  053%=      5-min Rain = 0
KWA1 271823Z 15008KT 31/21 A3019 RMK A01 T03130209  RH  054%=      5-min Rain = 0
KWA1 271824Z 15012KT 31/21 A3019 RMK A01 T03140206  RH  053%=      5-min Rain = 0
KWA1 271825Z 16011KT 32/20 A3019 RMK A01 T03150204  RH  052%=      5-min Rain = 0
KWA1 271826Z 14012KT 32/21 A3019 RMK A01 T03150206  RH  052%=      5-min Rain = 0
KWA1 271827Z 14012KT 32/21 A3019 RMK A01 T03160207  RH  052%=      5-min Rain = 0
KWA1 271828Z 13011KT 32/21 A3019 RMK A01 T03160207  RH  052%=      5-min Rain = 0
KWA1 271829Z 14012KT 32/20 A3019 RMK A01 T03150203  RH  052%=      5-min Rain = 0
KWA1 271830Z 16013KT 31/20 A3019 RMK A01 T03140204  RH  052%=      5-min Rain = 0
KWA1 271831Z 16009KT 31/21 A3019 RMK A01 T03140205  RH  052%=      5-min Rain = 0
KWA1 271832Z 16008KT 32/21 A3018 RMK A01 T03150205  RH  052%=      5-min Rain = 0
KWA1 271833Z 14013G18KT 31/20 A3018 RMK A01 T03140204  RH  052%=      5-min Rain = 0
KWA1 271834Z 15015KT 32/21 A3018 RMK A01 T03160205  RH  052%=      5-min Rain = 0
KWA1 271835Z 14014KT 32/21 A3018 RMK A01 T03170205  RH  052%=      5-min Rain = 0
KWA1 271836Z 15015G20KT 32/21 A3018 RMK A01 T03190208  RH  052%=      5-min Rain = 0
KWA1 271837Z 16016KT 32/20 A3018 RMK A01 T03180204  RH  051%=      5-min Rain = 0
KWA1 271838Z 16013KT 32/20 A3018 RMK A01 T03150204  RH  052%=      5-min Rain = 0
KWA1 271839Z 14017KT 32/21 A3018 RMK A01 T03150206  RH  052%=      5-min Rain = 0
KWA1 271840Z 15019KT 31/21 A3018 RMK A01 T03130205  RH  053%=      5-min Rain = 0
KWA1 271841Z 16018KT 31/21 A3018 RMK A01 T03120206  RH  053%=      5-min Rain = 0
KWA1 271842Z 15017KT 31/21 A3018 RMK A01 T03130205  RH  053%=      5-min Rain = 0
KWA1 271843Z 16017KT 31/21 A3018 RMK A01 T03140206  RH  053%=      5-min Rain = 0
KWA1 271844Z 16014KT 31/21 A3018 RMK A01 T03140206  RH  053%=      5-min Rain = 0
KWA1 271845Z 15015KT 32/21 A3018 RMK A01 T03150206  RH  052%=      5-min Rain = 0
KWA1 271846Z 16013KT 32/21 A3018 RMK A01 T03150205  RH  052%=      5-min Rain = 0
KWA1 271847Z 14015KT 32/21 A3018 RMK A01 T03150208  RH  053%=      5-min Rain = 0
KWA1 271848Z 14019KT 32/21 A3018 RMK A01 T03150207  RH  053%=      5-min Rain = 0
KWA1 271849Z 14019KT 31/20 A3018 RMK A01 T03130202  RH  052%=      5-min Rain = 0
KWA1 271850Z 14017KT 31/20 A3018 RMK A01 T03090201  RH  052%=      5-min Rain = 0
KWA1 271851Z 14016KT 31/20 A3018 RMK A01 T03080201  RH  053%=      5-min Rain = 0
KWA1 271852Z 13014KT 31/20 A3018 RMK A01 T03090203  RH  053%=      5-min Rain = 0
KWA1 271853Z 13016KT 31/20 A3018 RMK A01 T03110201  RH  052%=      5-min Rain = 0
KWA1 271854Z 13013KT 31/20 A3018 RMK A01 T03120200  RH  051%=      5-min Rain = 0
KWA1 271855Z 14013KT 31/20 A3018 RMK A01 T03130200  RH  051%=      5-min Rain = 0
KWA1 271856Z 15009KT 31/20 A3018 RMK A01 T03140201  RH  051%=      5-min Rain = 0
KWA1 271857Z 15010KT 31/20 A3017 RMK A01 T03140202  RH  051%=      5-min Rain = 0
KWA1 271858Z 13013KT 31/20 A3017 RMK A01 T03140200  RH  051%=      5-min Rain = 0
KWA1 271859Z 13010KT 31/20 A3017 RMK A01 T03140203  RH  052%=      5-min Rain = 0
KWA1 271900Z 14012KT 32/21 A3017 RMK A01 T03160205  RH  052%=      5-min Rain = 0
KWA1 271901Z 14009KT 32/20 A3017 RMK A01 T03160204  RH  052%=      5-min Rain = 0
KWA1 271902Z 14010KT 31/20 A3017 RMK A01 T03140201  RH  051%=      5-min Rain = 0
KWA1 271903Z 15008KT 31/20 A3017 RMK A01 T03130201  RH  051%=      5-min Rain = 0
KWA1 271904Z 15007KT 31/20 A3017 RMK A01 T03110200  RH  052%=      5-min Rain = 0
KWA1 271905Z 14010KT 31/20 A3017 RMK A01 T03090203  RH  054%=      5-min Rain = 0
KWA1 271906Z 14009KT 31/20 A3017 RMK A01 T03090203  RH  053%=      5-min Rain = 0
KWA1 271907Z 17008KT 31/20 A3017 RMK A01 T03090204  RH  054%=      5-min Rain = 0
KWA1 271908Z 19007KT 31/21 A3017 RMK A01 T03100205  RH  053%=      5-min Rain = 0
KWA1 271909Z 19007KT 31/21 A3017 RMK A01 T03110206  RH  054%=      5-min Rain = 0
KWA1 271910Z 20005KT 31/20 A3017 RMK A01 T03110204  RH  053%=      5-min Rain = 0
KWA1 271911Z 16006KT 31/20 A3017 RMK A01 T03100204  RH  053%=      5-min Rain = 0
KWA1 271912Z 16007KT 31/20 A3016 RMK A01 T03110200  RH  052%=      5-min Rain = 0
KWA1 271913Z 16007KT 31/20 A3016 RMK A01 T03110203  RH  053%=      5-min Rain = 0
KWA1 271914Z 15006KT 31/20 A3016 RMK A01 T03140204  RH  052%=      5-min Rain = 0
KWA1 271915Z 16008KT 32/20 A3016 RMK A01 T03150202  RH  051%=      5-min Rain = 0
KWA1 271916Z 17007KT 32/20 A3016 RMK A01 T03150202  RH  051%=      5-min Rain = 0
KWA1 271917Z 15008KT 32/21 A3016 RMK A01 T03170205  RH  052%=      5-min Rain = 0
KWA1 271918Z 15007KT 32/20 A3016 RMK A01 T03180200  RH  050%=      5-min Rain = 0
KWA1 271919Z 16007KT 32/20 A3016 RMK A01 T03160202  RH  051%=      5-min Rain = 0
KWA1 271920Z 14008KT 32/20 A3016 RMK A01 T03160204  RH  051%=      5-min Rain = 0
KWA1 271921Z 15009KT 32/20 A3016 RMK A01 T03180204  RH  051%=      5-min Rain = 0
KWA1 271922Z 15007KT 32/21 A3016 RMK A01 T03200206  RH  051%=      5-min Rain = 0
KWA1 271923Z 13008KT 32/20 A3016 RMK A01 T03220201  RH  049%=      5-min Rain = 0
KWA1 271924Z 14012KT 32/20 A3016 RMK A01 T03210203  RH  050%=      5-min Rain = 0
KWA1 271925Z 17009KT 32/21 A3016 RMK A01 T03230205  RH  050%=      5-min Rain = 0
KWA1 271926Z 14011KT 32/20 A3016 RMK A01 T03240203  RH  049%=      5-min Rain = 0
KWA1 271927Z 14010KT 32/20 A3016 RMK A01 T03210197  RH  048%=      5-min Rain = 0
KWA1 271928Z 14004KT 32/20 A3016 RMK A01 T03150197  RH  050%=      5-min Rain = 0
KWA1 271929Z 12008G14KT 31/20 A3016 RMK A01 T03130200  RH  051%=      5-min Rain = 0
KWA1 271930Z 13014KT 32/20 A3016 RMK A01 T03150199  RH  050%=      5-min Rain = 0
KWA1 271931Z 14011KT 32/20 A3016 RMK A01 T03150199  RH  050%=      5-min Rain = 0
KWA1 271932Z 14009G14KT 31/20 A3016 RMK A01 T03120197  RH  050%=      5-min Rain = 0
KWA1 271933Z 14010KT 31/20 A3016 RMK A01 T03100198  RH  051%=      5-min Rain = 0
KWA1 271934Z 13013KT 31/20 A3016 RMK A01 T03110201  RH  052%=      5-min Rain = 0
KWA1 271935Z 13012KT 31/20 A3016 RMK A01 T03130197  RH  050%=      5-min Rain = 0
KWA1 271936Z 15009KT 31/20 A3016 RMK A01 T03110198  RH  051%=      5-min Rain = 0
KWA1 271937Z 14010KT 31/20 A3016 RMK A01 T03100198  RH  051%=      5-min Rain = 0
KWA1 271938Z 14010KT 31/20 A3016 RMK A01 T03090198  RH  051%=      5-min Rain = 0
KWA1 271939Z 12008KT 31/20 A3016 RMK A01 T03080198  RH  052%=      5-min Rain = 0
KWA1 271940Z 12008KT 31/20 A3016 RMK A01 T03090198  RH  052%=      5-min Rain = 0
KWA1 271941Z 13011KT 31/20 A3016 RMK A01 T03110198  RH  051%=      5-min Rain = 0
KWA1 271942Z 12010KT 31/20 A3016 RMK A01 T03140200  RH  051%=      5-min Rain = 0
KWA1 271943Z 12009KT 32/20 A3016 RMK A01 T03180203  RH  051%=      5-min Rain = 0
KWA1 271944Z 13009KT 32/20 A3016 RMK A01 T03200198  RH  049%=      5-min Rain = 0
KWA1 271945Z 15011KT 32/21 A3016 RMK A01 T03190205  RH  051%=      5-min Rain = 0
KWA1 271946Z 15013KT 32/20 A3016 RMK A01 T03220204  RH  050%=      5-min Rain = 0
KWA1 271947Z 14014KT 32/20 A3016 RMK A01 T03220202  RH  049%=      5-min Rain = 0
KWA1 271948Z 14012KT 32/20 A3016 RMK A01 T03180199  RH  049%=      5-min Rain = 0
KWA1 271949Z 14013KT 32/20 A3016 RMK A01 T03160200  RH  050%=      5-min Rain = 0
KWA1 271950Z 15015KT 31/20 A3016 RMK A01 T03140199  RH  051%=      5-min Rain = 0
KWA1 271951Z 15015KT 31/20 A3016 RMK A01 T03130201  RH  051%=      5-min Rain = 0
KWA1 271952Z 16012KT 31/20 A3016 RMK A01 T03130202  RH  052%=      5-min Rain = 0
KWA1 271953Z 15008KT 31/20 A3016 RMK A01 T03140202  RH  052%=      5-min Rain = 0
KWA1 271954Z 15008KT 31/20 A3016 RMK A01 T03130201  RH  051%=      5-min Rain = 0
KWA1 271955Z 14009KT 31/20 A3016 RMK A01 T03130203  RH  052%=      5-min Rain = 0
KWA1 271956Z 17010KT 32/21 A3016 RMK A01 T03170206  RH  052%=      5-min Rain = 0
KWA1 271957Z 18010KT 32/20 A3016 RMK A01 T03190204  RH  050%=      5-min Rain = 0
KWA1 271958Z 19009KT 32/20 A3016 RMK A01 T03210201  RH  049%=      5-min Rain = 0
KWA1 271959Z 19006KT 32/20 A3015 RMK A01 T03210201  RH  049%=      5-min Rain = 0
KWA1 272000Z 18009G20KT 32/20 A3015 RMK A01 T03200204  RH  050%=      5-min Rain = 0
KWA1 272001Z 15016KT 32/21 A3015 RMK A01 T03200212  RH  053%=      5-min Rain = 0
KWA1 272002Z 15017KT 32/21 A3015 RMK A01 T03170211  RH  053%=      5-min Rain = 0
KWA1 272003Z 15016KT 31/21 A3015 RMK A01 T03140211  RH  055%=      5-min Rain = 0
KWA1 272004Z 15014KT 31/21 A3015 RMK A01 T03120213  RH  055%=      5-min Rain = 0
KWA1 272005Z 16014KT 31/22 A3015 RMK A01 T03130216  RH  056%=      5-min Rain = 0
KWA1 272006Z 16016KT 32/22 A3015 RMK A01 T03160215  RH  055%=      5-min Rain = 0
KWA1 272007Z 17015KT 32/22 A3015 RMK A01 T03190218  RH  055%=      5-min Rain = 0
KWA1 272008Z 16014G19KT 32/22 A3015 RMK A01 T03210219  RH  055%=      5-min Rain = 0
KWA1 272009Z 16015KT 32/22 A3015 RMK A01 T03230216  RH  053%=      5-min Rain = 0
KWA1 272010Z 16011KT 32/22 A3015 RMK A01 T03210216  RH  054%=      5-min Rain = 0
KWA1 272011Z 15015KT 32/21 A3015 RMK A01 T03200214  RH  053%=      5-min Rain = 0
KWA1 272012Z 15015KT 32/21 A3015 RMK A01 T03190211  RH  053%=      5-min Rain = 0
KWA1 272013Z 15015KT 32/21 A3015 RMK A01 T03180208  RH  052%=      5-min Rain = 0
KWA1 272014Z 16012KT 32/21 A3015 RMK A01 T03150208  RH  053%=      5-min Rain = 0
KWA1 272015Z 17015KT 31/21 A3015 RMK A01 T03140211  RH  054%=      5-min Rain = 0
KWA1 272016Z 19015KT 32/21 A3015 RMK A01 T03190212  RH  053%=      5-min Rain = 0
KWA1 272017Z 18013KT 33/21 A3015 RMK A01 T03250212  RH  051%=      5-min Rain = 0
KWA1 272018Z 17015KT 33/21 A3015 RMK A01 T03260212  RH  051%=      5-min Rain = 0
KWA1 272019Z 15015KT 33/21 A3015 RMK A01 T03250210  RH  051%=      5-min Rain = 0
KWA1 272020Z 15015KT 32/21 A3015 RMK A01 T03230207  RH  050%=      5-min Rain = 0
KWA1 272021Z 15014KT 32/20 A3015 RMK A01 T03210204  RH  050%=      5-min Rain = 0
KWA1 272022Z 17015KT 32/21 A3015 RMK A01 T03190207  RH  052%=      5-min Rain = 0
KWA1 272023Z 17013KT 32/21 A3015 RMK A01 T03190207  RH  052%=      5-min Rain = 0
KWA1 272024Z 17013KT 32/21 A3015 RMK A01 T03190210  RH  053%=      5-min Rain = 0
KWA1 272025Z 16011KT 32/21 A3015 RMK A01 T03210206  RH  051%=      5-min Rain = 0
KWA1 272026Z 18009KT 32/21 A3015 RMK A01 T03180205  RH  051%=      5-min Rain = 0
KWA1 272027Z 17010G15KT 32/21 A3015 RMK A01 T03170207  RH  052%=      5-min Rain = 0
KWA1 272028Z 17017KT 32/21 A3015 RMK A01 T03200208  RH  052%=      5-min Rain = 0
KWA1 272029Z 18014KT 32/21 A3015 RMK A01 T03240205  RH  049%=      5-min Rain = 0
KWA1 272030Z 17014KT 32/20 A3015 RMK A01 T03230204  RH  049%=      5-min Rain = 0
KWA1 272031Z 15014KT 32/20 A3015 RMK A01 T03220202  RH  049%=      5-min Rain = 0
KWA1 272032Z 16012KT 32/20 A3015 RMK A01 T03210201  RH  049%=      5-min Rain = 0
KWA1 272033Z 16012KT 32/20 A3014 RMK A01 T03230201  RH  049%=      5-min Rain = 0
KWA1 272034Z 17014KT 33/20 A3014 RMK A01 T03250204  RH  049%=      5-min Rain = 0
KWA1 272035Z 17014KT 33/20 A3014 RMK A01 T03270197  RH  046%=      5-min Rain = 0
KWA1 272036Z 17013KT 32/20 A3014 RMK A01 T03230196  RH  047%=      5-min Rain = 0
KWA1 272037Z 17016KT 33/20 A3014 RMK A01 T03250198  RH  047%=      5-min Rain = 0
KWA1 272038Z 18015KT 33/19 A3014 RMK A01 T03270193  RH  045%=      5-min Rain = 0
KWA1 272039Z 17015KT 33/19 A3014 RMK A01 T03280191  RH  044%=      5-min Rain = 0
KWA1 272040Z 17012KT 33/19 A3014 RMK A01 T03260187  RH  044%=      5-min Rain = 0
KWA1 272041Z 16015KT 33/18 A3014 RMK A01 T03250184  RH  043%=      5-min Rain = 0
KWA1 272042Z 17013KT 32/19 A3014 RMK A01 T03240186  RH  044%=      5-min Rain = 0
KWA1 272043Z 15013KT 32/19 A3014 RMK A01 T03220187  RH  045%=      5-min Rain = 0
KWA1 272044Z 15012KT 32/19 A3014 RMK A01 T03220188  RH  045%=      5-min Rain = 0
KWA1 272045Z 16013KT 32/19 A3014 RMK A01 T03220190  RH  046%=      5-min Rain = 0
KWA1 272046Z 18012KT 32/19 A3014 RMK A01 T03230193  RH  046%=      5-min Rain = 0
KWA1 272047Z 16011KT 32/20 A3014 RMK A01 T03240195  RH  047%=      5-min Rain = 0
KWA1 272048Z 15011KT 33/20 A3014 RMK A01 T03260195  RH  046%=      5-min Rain = 0
KWA1 272049Z 16008KT 32/19 A3014 RMK A01 T03220192  RH  046%=      5-min Rain = 0
KWA1 272050Z 16011G17KT 32/19 A3014 RMK A01 T03200194  RH  047%=      5-min Rain = 0
KWA1 272051Z 17014KT 32/19 A3014 RMK A01 T03230194  RH  047%=      5-min Rain = 0
KWA1 272052Z 17012KT 33/19 A3014 RMK A01 T03260194  RH  046%=      5-min Rain = 0
KWA1 272053Z 17011KT 33/20 A3014 RMK A01 T03280196  RH  046%=      5-min Rain = 0
KWA1 272054Z 17010G15KT 33/20 A3014 RMK A01 T03290198  RH  046%=      5-min Rain = 0
KWA1 272055Z 16012KT 33/20 A3014 RMK A01 T03300196  RH  045%=      5-min Rain = 0
KWA1 272056Z 17014G20KT 33/20 A3014 RMK A01 T03250195  RH  046%=      5-min Rain = 0
KWA1 272057Z 17013KT 32/20 A3014 RMK A01 T03240195  RH  047%=      5-min Rain = 0
KWA1 272058Z 17010KT 33/20 A3014 RMK A01 T03260196  RH  046%=      5-min Rain = 0
KWA1 272059Z 17010KT 33/20 A3014 RMK A01 T03260196  RH  046%=      5-min Rain = 0
KWA1 272100Z 18012KT 33/20 A3014 RMK A01 T03250198  RH  047%=      5-min Rain = 0
KWA1 272101Z 17015KT 33/19 A3014 RMK A01 T03270193  RH  045%=      5-min Rain = 0
KWA1 272102Z 17015KT 33/19 A3014 RMK A01 T03270194  RH  045%=      5-min Rain = 0
KWA1 272103Z 17014KT 33/19 A3014 RMK A01 T03270191  RH  045%=      5-min Rain = 0
KWA1 272104Z 17011KT 33/20 A3014 RMK A01 T03250195  RH  046%=      5-min Rain = 0
KWA1 272105Z 19012KT 33/20 A3013 RMK A01 T03260197  RH  047%=      5-min Rain = 0
KWA1 272106Z 18010KT 33/19 A3014 RMK A01 T03270194  RH  046%=      5-min Rain = 0
KWA1 272107Z 19012KT 33/19 A3013 RMK A01 T03250193  RH  046%=      5-min Rain = 0
KWA1 272108Z 19010KT 32/19 A3013 RMK A01 T03240191  RH  045%=      5-min Rain = 0
KWA1 272109Z 17014KT 33/20 A3013 RMK A01 T03250198  RH  047%=      5-min Rain = 0
KWA1 272110Z 17015KT 33/20 A3013 RMK A01 T03290196  RH  046%=      5-min Rain = 0
KWA1 272111Z 17014KT 33/19 A3013 RMK A01 T03270194  RH  045%=      5-min Rain = 0
KWA1 272112Z 17012KT 33/20 A3013 RMK A01 T03250196  RH  047%=      5-min Rain = 0
KWA1 272113Z 17013KT 33/19 A3013 RMK A01 T03270194  RH  046%=      5-min Rain = 0
KWA1 272114Z 17012KT 33/19 A3013 RMK A01 T03280193  RH  045%=      5-min Rain = 0
KWA1 272115Z 17008KT 33/19 A3013 RMK A01 T03260190  RH  044%=      5-min Rain = 0
KWA1 272116Z 16008KT 32/19 A3013 RMK A01 T03230194  RH  047%=      5-min Rain = 0
KWA1 272117Z 15009KT 32/20 A3013 RMK A01 T03220197  RH  048%=      5-min Rain = 0
KWA1 272118Z 16011KT 32/20 A3013 RMK A01 T03230199  RH  048%=      5-min Rain = 0
KWA1 272119Z 17009KT 32/20 A3013 RMK A01 T03240197  RH  047%=      5-min Rain = 0
KWA1 272120Z 15009KT 32/20 A3013 RMK A01 T03210197  RH  048%=      5-min Rain = 0
KWA1 272121Z 15009KT 32/20 A3012 RMK A01 T03210200  RH  049%=      5-min Rain = 0
KWA1 272122Z 17010KT 32/20 A3012 RMK A01 T03220201  RH  049%=      5-min Rain = 0
KWA1 272123Z 17014G19KT 33/20 A3012 RMK A01 T03270202  RH  048%=      5-min Rain = 0
KWA1 272124Z 17014KT 33/20 A3012 RMK A01 T03300200  RH  046%=      5-min Rain = 0
KWA1 272125Z 17013KT 33/20 A3012 RMK A01 T03270200  RH  047%=      5-min Rain = 0
KWA1 272126Z 17012KT 33/20 A3012 RMK A01 T03270200  RH  047%=      5-min Rain = 0
KWA1 272127Z 18010KT 33/20 A3012 RMK A01 T03260199  RH  047%=      5-min Rain = 0
KWA1 272128Z 18011KT 32/20 A3012 RMK A01 T03240200  RH  048%=      5-min Rain = 0
KWA1 272129Z 19009KT 32/20 A3012 RMK A01 T03240201  RH  048%=      5-min Rain = 0
KWA1 272130Z 19007KT 33/20 A3012 RMK A01 T03260200  RH  047%=      5-min Rain = 0
KWA1 272131Z 15008KT 33/20 A3012 RMK A01 T03250201  RH  048%=      5-min Rain = 0
KWA1 272132Z 15010G15KT 33/20 A3012 RMK A01 T03250200  RH  048%=      5-min Rain = 0
KWA1 272133Z 16013KT 33/20 A3012 RMK A01 T03260195  RH  046%=      5-min Rain = 0
KWA1 272134Z 16013KT 33/19 A3012 RMK A01 T03290194  RH  045%=      5-min Rain = 0
KWA1 272135Z 17012KT 33/19 A3012 RMK A01 T03300194  RH  045%=      5-min Rain = 0
KWA1 272136Z 16012G17KT 33/20 A3012 RMK A01 T03270195  RH  046%=      5-min Rain = 0
KWA1 272137Z 15012KT 33/20 A3012 RMK A01 T03250198  RH  047%=      5-min Rain = 0
KWA1 272138Z 15011KT 32/20 A3012 RMK A01 T03240196  RH  047%=      5-min Rain = 0
KWA1 272139Z 16009KT 32/20 A3012 RMK A01 T03220200  RH  048%=      5-min Rain = 0
KWA1 272140Z 16012KT 32/20 A3012 RMK A01 T03240198  RH  048%=      5-min Rain = 0
KWA1 272141Z 16013KT 32/20 A3012 RMK A01 T03240198  RH  047%=      5-min Rain = 0
KWA1 272142Z 16015G21KT 33/20 A3012 RMK A01 T03270201  RH  047%=      5-min Rain = 0
KWA1 272143Z 15014KT 33/20 A3012 RMK A01 T03290197  RH  046%=      5-min Rain = 0
KWA1 272144Z 15013KT 33/20 A3012 RMK A01 T03270196  RH  046%=      5-min Rain = 0
KWA1 272145Z 15011KT 33/20 A3012 RMK A01 T03250197  RH  047%=      5-min Rain = 0
KWA1 272146Z 18009KT 33/20 A3012 RMK A01 T03260197  RH  047%=      5-min Rain = 0
KWA1 272147Z 16008KT 33/20 A3012 RMK A01 T03260196  RH  046%=      5-min Rain = 0
KWA1 272148Z 15012KT 33/20 A3012 RMK A01 T03260195  RH  046%=      5-min Rain = 0
KWA1 272149Z 16012KT 33/20 A3012 RMK A01 T03260195  RH  046%=      5-min Rain = 0
KWA1 272150Z 17014KT 33/19 A3012 RMK A01 T03260194  RH  046%=      5-min Rain = 0
KWA1 272151Z 17014KT 33/19 A3012 RMK A01 T03270192  RH  045%=      5-min Rain = 0
KWA1 272152Z 16011KT 33/19 A3012 RMK A01 T03270192  RH  045%=      5-min Rain = 0
KWA1 272153Z 17009KT 33/19 A3012 RMK A01 T03260193  RH  046%=      5-min Rain = 0
KWA1 272154Z 16013KT 33/19 A3012 RMK A01 T03270194  RH  046%=      5-min Rain = 0
KWA1 272155Z 16011KT 33/19 A3012 RMK A01 T03280190  RH  044%=      5-min Rain = 0
KWA1 272156Z 18007KT 33/19 A3012 RMK A01 T03250190  RH  045%=      5-min Rain = 0
KWA1 272157Z 19006KT 32/19 A3011 RMK A01 T03240190  RH  045%=      5-min Rain = 0
KWA1 272158Z 18008G13KT 32/19 A3011 RMK A01 T03240192  RH  046%=      5-min Rain = 0
KWA1 272159Z 15012KT 33/19 A3011 RMK A01 T03260194  RH  046%=      5-min Rain = 0
KWA1 272200Z 15013KT 33/19 A3011 RMK A01 T03270191  RH  045%=      5-min Rain = 0
KWA1 272201Z 15011KT 33/19 A3011 RMK A01 T03250190  RH  045%=      5-min Rain = 0
KWA1 272202Z 16012KT 33/19 A3011 RMK A01 T03250194  RH  046%=      5-min Rain = 0
KWA1 272203Z 16011KT 33/20 A3012 RMK A01 T03290195  RH  045%=      5-min Rain = 0
KWA1 272204Z 17012KT 33/19 A3011 RMK A01 T03300193  RH  044%=      5-min Rain = 0
KWA1 272205Z 18009KT 33/19 A3011 RMK A01 T03290193  RH  045%=      5-min Rain = 0
KWA1 272206Z 19011KT 33/19 A3011 RMK A01 T03290190  RH  044%=      5-min Rain = 0
KWA1 272207Z 17010KT 33/19 A3011 RMK A01 T03300192  RH  044%=      5-min Rain = 0
KWA1 272208Z 17011KT 33/20 A3011 RMK A01 T03320197  RH  045%=      5-min Rain = 0
KWA1 272209Z 19011KT 33/19 A3011 RMK A01 T03330193  RH  044%=      5-min Rain = 0
KWA1 272210Z 19012KT 33/19 A3011 RMK A01 T03310193  RH  044%=      5-min Rain = 0
KWA1 272211Z 17014KT 33/19 A3011 RMK A01 T03300194  RH  045%=      5-min Rain = 0
KWA1 272212Z 16012KT 33/20 A3011 RMK A01 T03310195  RH  045%=      5-min Rain = 0
KWA1 272213Z 16011KT 33/19 A3011 RMK A01 T03300193  RH  044%=      5-min Rain = 0
KWA1 272214Z 17011KT 33/19 A3011 RMK A01 T03290189  RH  044%=      5-min Rain = 0
KWA1 272215Z 16011KT 33/18 A3011 RMK A01 T03250184  RH  043%=      5-min Rain = 0
KWA1 272216Z 17012KT 32/19 A3011 RMK A01 T03240186  RH  044%=      5-min Rain = 0
KWA1 272217Z 17012KT 32/18 A3011 RMK A01 T03240184  RH  043%=      5-min Rain = 0
KWA1 272218Z 18012KT 32/19 A3011 RMK A01 T03230187  RH  044%=      5-min Rain = 0
KWA1 272219Z 18012KT 32/19 A3011 RMK A01 T03240189  RH  045%=      5-min Rain = 0
KWA1 272220Z 18013KT 33/19 A3011 RMK A01 T03260188  RH  044%=      5-min Rain = 0
KWA1 272221Z 18011KT 33/19 A3011 RMK A01 T03270187  RH  044%=      5-min Rain = 0
KWA1 272222Z 18008KT 33/19 A3011 RMK A01 T03270188  RH  044%=      5-min Rain = 0
KWA1 272223Z 18008KT 33/19 A3011 RMK A01 T03270187  RH  044%=      5-min Rain = 0
KWA1 272224Z 17012G17KT 33/19 A3011 RMK A01 T03280187  RH  044%=      5-min Rain = 0
KWA1 272225Z 17014KT 33/19 A3011 RMK A01 T03280185  RH  043%=      5-min Rain = 0
KWA1 272226Z 16011KT 33/19 A3011 RMK A01 T03290185  RH  043%=      5-min Rain = 0
KWA1 272227Z 17010KT 33/19 A3011 RMK A01 T03290187  RH  043%=      5-min Rain = 0
KWA1 272228Z 17010KT 33/19 A3011 RMK A01 T03290189  RH  044%=      5-min Rain = 0
KWA1 272229Z 16009KT 33/19 A3011 RMK A01 T03280187  RH  043%=      5-min Rain = 0
KWA1 272230Z 17008KT 33/19 A3011 RMK A01 T03260188  RH  044%=      5-min Rain = 0
KWA1 272231Z 17009KT 32/19 A3011 RMK A01 T03240187  RH  044%=      5-min Rain = 0
KWA1 272232Z 16013KT 32/19 A3011 RMK A01 T03240190  RH  045%=      5-min Rain = 0
KWA1 272233Z 16013KT 33/19 A3011 RMK A01 T03260193  RH  046%=      5-min Rain = 0
KWA1 272234Z 18011KT 33/19 A3011 RMK A01 T03270192  RH  045%=      5-min Rain = 0
KWA1 272235Z 17009KT 33/19 A3011 RMK A01 T03260191  RH  045%=      5-min Rain = 0
KWA1 272236Z 17009KT 33/19 A3011 RMK A01 T03250194  RH  046%=      5-min Rain = 0
KWA1 272237Z 17009KT 33/20 A3011 RMK A01 T03260195  RH  046%=      5-min Rain = 0
KWA1 272238Z 18006KT 33/20 A301 RMK A01 T03280196  RH  046%=      5-min Rain = 0
KWA1 272239Z 18010KT 33/19 A301 RMK A01 T03290194  RH  045%=      5-min Rain = 0
KWA1 272240Z 17011KT 33/20 A301 RMK A01 T03290198  RH  046%=      5-min Rain = 0
KWA1 272241Z 17011KT 33/20 A301 RMK A01 T03290196  RH  045%=      5-min Rain = 0
KWA1 272242Z 16011KT 33/20 A301 RMK A01 T03290195  RH  045%=      5-min Rain = 0
KWA1 272243Z 16012KT 33/20 A301 RMK A01 T03280195  RH  046%=      5-min Rain = 0
KWA1 272244Z 17011KT 33/20 A301 RMK A01 T03260196  RH  046%=      5-min Rain = 0
KWA1 272245Z 16010KT 33/20 A301 RMK A01 T03270198  RH  047%=      5-min Rain = 0
KWA1 272246Z 16010KT 33/20 A301 RMK A01 T03290196  RH  046%=      5-min Rain = 0
KWA1 272247Z 18010KT 33/20 A301 RMK A01 T03280197  RH  046%=      5-min Rain = 0
KWA1 272248Z 18012KT 33/20 A301 RMK A01 T03280196  RH  046%=      5-min Rain = 0
KWA1 272249Z 18010KT 33/20 A301 RMK A01 T03270198  RH  047%=      5-min Rain = 0
KWA1 272250Z 19009KT 33/20 A301 RMK A01 T03270196  RH  046%=      5-min Rain = 0
KWA1 272251Z 18011KT 33/20 A301 RMK A01 T03270199  RH  047%=      5-min Rain = 0
KWA1 272252Z 16009KT 33/20 A301 RMK A01 T03280198  RH  047%=      5-min Rain = 0
KWA1 272253Z 15010KT 33/20 A301 RMK A01 T03260198  RH  047%=      5-min Rain = 0
KWA1 272254Z 14012KT 33/20 A301 RMK A01 T03250198  RH  047%=      5-min Rain = 0
KWA1 272255Z 15014KT 33/20 A301 RMK A01 T03260197  RH  047%=      5-min Rain = 0
KWA1 272256Z 17013KT 33/20 A301 RMK A01 T03270195  RH  046%=      5-min Rain = 0
KWA1 272257Z 18013KT 33/19 A301 RMK A01 T03280194  RH  045%=      5-min Rain = 0
KWA1 272258Z 18011KT 33/19 A301 RMK A01 T03280192  RH  045%=      5-min Rain = 0
KWA1 272259Z 18012KT 33/19 A301 RMK A01 T03280194  RH  045%=      5-min Rain = 0
KWA1 272300Z 18012KT 33/20 A301 RMK A01 T03280195  RH  045%=      5-min Rain = 0
KWA1 272301Z 18012KT 33/19 A301 RMK A01 T03270193  RH  045%=      5-min Rain = 0
KWA1 272302Z 19010KT 33/19 A301 RMK A01 T03260193  RH  045%=      5-min Rain = 0
KWA1 272303Z 18010KT 33/19 A301 RMK A01 T03260191  RH  045%=      5-min Rain = 0
KWA1 272304Z 18010KT 33/20 A301 RMK A01 T03260196  RH  046%=      5-min Rain = 0
KWA1 272305Z 17011KT 33/20 A301 RMK A01 T03280197  RH  046%=      5-min Rain = 0
KWA1 272306Z 16011KT 33/20 A301 RMK A01 T03280195  RH  046%=      5-min Rain = 0
KWA1 272307Z 16010KT 33/20 A301 RMK A01 T03260196  RH  046%=      5-min Rain = 0
KWA1 272308Z 16008KT 32/20 A301 RMK A01 T03240196  RH  047%=      5-min Rain = 0
KWA1 272309Z 17010KT 32/20 A301 RMK A01 T03240197  RH  047%=      5-min Rain = 0
KWA1 272310Z 17007KT 32/20 A301 RMK A01 T03240200  RH  048%=      5-min Rain = 0
KWA1 272311Z 18009KT 33/20 A301 RMK A01 T03250198  RH  047%=      5-min Rain = 0
KWA1 272312Z 16012KT 33/20 A301 RMK A01 T03270198  RH  047%=      5-min Rain = 0
KWA1 272313Z 16013KT 33/20 A301 RMK A01 T03270195  RH  046%=      5-min Rain = 0
KWA1 272314Z 16012KT 33/19 A301 RMK A01 T03270194  RH  045%=      5-min Rain = 0
KWA1 272315Z 17010KT 33/19 A301 RMK A01 T03270193  RH  045%=      5-min Rain = 0
KWA1 272316Z 16008KT 33/20 A301 RMK A01 T03260195  RH  046%=      5-min Rain = 0
KWA1 272317Z 15011KT 33/19 A301 RMK A01 T03260193  RH  045%=      5-min Rain = 0
KWA1 272318Z 16013KT 33/19 A301 RMK A01 T03260193  RH  045%=      5-min Rain = 0
KWA1 272319Z 15012KT 33/20 A301 RMK A01 T03250197  RH  047%=      5-min Rain = 0
KWA1 272320Z 16011KT 33/20 A301 RMK A01 T03260199  RH  047%=      5-min Rain = 0
KWA1 272321Z 15009G14KT 33/20 A301 RMK A01 T03250203  RH  049%=      5-min Rain = 0
KWA1 272322Z 14014KT 32/20 A301 RMK A01 T03240202  RH  049%=      5-min Rain = 0
KWA1 272323Z 16012KT 32/20 A301 RMK A01 T03200200  RH  049%=      5-min Rain = 0
KWA1 272324Z 16011KT 32/20 A301 RMK A01 T03180199  RH  049%=      5-min Rain = 0
KWA1 272325Z 16010KT 32/20 A301 RMK A01 T03170200  RH  050%=      5-min Rain = 0
KWA1 272326Z 16013KT 32/20 A301 RMK A01 T03180202  RH  050%=      5-min Rain = 0
KWA1 272327Z 16013KT 32/20 A301 RMK A01 T03180202  RH  050%=      5-min Rain = 0
KWA1 272328Z 14013KT 32/20 A301 RMK A01 T03190203  RH  050%=      5-min Rain = 0
KWA1 272329Z 14012KT 32/20 A301 RMK A01 T03170202  RH  051%=      5-min Rain = 0
KWA1 272330Z 14012KT 32/20 A301 RMK A01 T03160202  RH  051%=      5-min Rain = 0
KWA1 272331Z 15013KT 32/20 A301 RMK A01 T03150201  RH  051%=      5-min Rain = 0
KWA1 272332Z 15014KT 32/20 A301 RMK A01 T03160201  RH  051%=      5-min Rain = 0
KWA1 272333Z 16014KT 32/20 A301 RMK A01 T03170202  RH  050%=      5-min Rain = 0
KWA1 272334Z 15014KT 32/20 A301 RMK A01 T03180204  RH  051%=      5-min Rain = 0
KWA1 272335Z 14013KT 32/20 A301 RMK A01 T03190204  RH  050%=      5-min Rain = 0
KWA1 272336Z 15012KT 32/20 A301 RMK A01 T03190204  RH  051%=      5-min Rain = 0
KWA1 272337Z 15014KT 32/21 A301 RMK A01 T03180206  RH  051%=      5-min Rain = 0
KWA1 272338Z 14013KT 32/21 A301 RMK A01 T03190206  RH  051%=      5-min Rain = 0
KWA1 272339Z 14013KT 32/21 A301 RMK A01 T03180206  RH  051%=      5-min Rain = 0
KWA1 272340Z 14013KT 32/20 A301 RMK A01 T03170204  RH  051%=      5-min Rain = 0
KWA1 272341Z 16013G18KT 32/20 A301 RMK A01 T03160203  RH  051%=      5-min Rain = 0
KWA1 272342Z 16015KT 32/20 A301 RMK A01 T03150203  RH  051%=      5-min Rain = 0
KWA1 272343Z 16015KT 31/20 A301 RMK A01 T03140202  RH  051%=      5-min Rain = 0
KWA1 272344Z 18012KT 31/20 A301 RMK A01 T03140203  RH  052%=      5-min Rain = 0
KWA1 272345Z 17012KT 31/20 A301 RMK A01 T03140204  RH  052%=      5-min Rain = 0
KWA1 272346Z 17010KT 32/20 A301 RMK A01 T03150204  RH  052%=      5-min Rain = 0
KWA1 272347Z 17010KT 32/21 A301 RMK A01 T03170205  RH  052%=      5-min Rain = 0
KWA1 272348Z 17011KT 32/21 A301 RMK A01 T03180205  RH  051%=      5-min Rain = 0
KWA1 272349Z 17010KT 32/20 A301 RMK A01 T03190204  RH  051%=      5-min Rain = 0
KWA1 272350Z 17010KT 32/21 A301 RMK A01 T03180205  RH  051%=      5-min Rain = 0
KWA1 272351Z 17011KT 32/21 A301 RMK A01 T03200205  RH  051%=      5-min Rain = 0
KWA1 272352Z 17012KT 32/20 A301 RMK A01 T03200204  RH  050%=      5-min Rain = 0
KWA1 272353Z 18012KT 32/20 A301 RMK A01 T03200203  RH  050%=      5-min Rain = 0
KWA1 272354Z 18011KT 32/20 A301 RMK A01 T03200201  RH  049%=      5-min Rain = 0
KWA1 272355Z 17012KT 32/20 A301 RMK A01 T03190201  RH  050%=      5-min Rain = 0
KWA1 272356Z 17011KT 32/20 A301 RMK A01 T03190201  RH  050%=      5-min Rain = 0
KWA1 272357Z 17012KT 32/20 A301 RMK A01 T03180201  RH  050%=      5-min Rain = 0
KWA1 272358Z 17012KT 32/20 A301 RMK A01 T03190199  RH  049%=      5-min Rain = 0
KWA1 272359Z 16011KT 32/20 A301 RMK A01 T03180202  RH  050%=      5-min Rain = 0
KWA1 280000Z 16012KT 32/20 A301 RMK A01 T03210203  RH  050%=      5-min Rain = 0
KWA1 280001Z 16014KT 32/20 A301 RMK A01 T03210201  RH  049%=      5-min Rain = 0
KWA1 280002Z 15013KT 32/20 A301 RMK A01 T03210198  RH  048%=      5-min Rain = 0
KWA1 280003Z 14014KT 32/20 A301 RMK A01 T03200199  RH  049%=      5-min Rain = 0
KWA1 280004Z 14014KT 32/20 A301 RMK A01 T03190198  RH  049%=      5-min Rain = 0
KWA1 280005Z 15014KT 32/20 A301 RMK A01 T03180201  RH  050%=      5-min Rain = 0
KWA1 280006Z 16013KT 32/20 A301 RMK A01 T03190200  RH  050%=      5-min Rain = 0
KWA1 280007Z 17013KT 32/20 A301 RMK A01 T03200201  RH  049%=      5-min Rain = 0
KWA1 280008Z 17014KT 32/20 A301 RMK A01 T03200202  RH  050%=      5-min Rain = 0
KWA1 280009Z 15014KT 32/20 A301 RMK A01 T03200200  RH  049%=      5-min Rain = 0
KWA1 280010Z 16012KT 32/20 A301 RMK A01 T03190198  RH  049%=      5-min Rain = 0
KWA1 280011Z 15012KT 32/20 A301 RMK A01 T03180198  RH  049%=      5-min Rain = 0
KWA1 280012Z 15013KT 32/20 A301 RMK A01 T03180197  RH  049%=      5-min Rain = 0
KWA1 280013Z 16010KT 32/20 A301 RMK A01 T03180196  RH  048%=      5-min Rain = 0
KWA1 280014Z 18013KT 32/20 A301 RMK A01 T03190196  RH  048%=      5-min Rain = 0
KWA1 280015Z 17014KT 32/19 A301 RMK A01 T03190192  RH  047%=      5-min Rain = 0
KWA1 280016Z 16013KT 32/19 A301 RMK A01 T03190193  RH  047%=      5-min Rain = 0
KWA1 280017Z 15013KT 32/19 A301 RMK A01 T03190194  RH  048%=      5-min Rain = 0
KWA1 280018Z 17014KT 32/19 A301 RMK A01 T03190194  RH  047%=      5-min Rain = 0
KWA1 280019Z 17013KT 32/19 A301 RMK A01 T03180192  RH  047%=      5-min Rain = 0
KWA1 280020Z 17014KT 32/19 A301 RMK A01 T03180190  RH  047%=      5-min Rain = 0
KWA1 280021Z 17015KT 32/18 A301 RMK A01 T03170184  RH  045%=      5-min Rain = 0
KWA1 280022Z 18013KT 32/19 A301 RMK A01 T03170187  RH  046%=      5-min Rain = 0
KWA1 280023Z 17013KT 32/19 A301 RMK A01 T03160191  RH  047%=      5-min Rain = 0
KWA1 280024Z 17014KT 32/19 A301 RMK A01 T03160192  RH  048%=      5-min Rain = 0
KWA1 280025Z 17014KT 32/19 A301 RMK A01 T03160192  RH  048%=      5-min Rain = 0
KWA1 280026Z 18014KT 31/19 A301 RMK A01 T03140190  RH  048%=      5-min Rain = 0
KWA1 280027Z 18013KT 31/19 A301 RMK A01 T03130188  RH  047%=      5-min Rain = 0
KWA1 280028Z 17012KT 31/19 A301 RMK A01 T03140190  RH  048%=      5-min Rain = 0
KWA1 280029Z 18012KT 31/19 A301 RMK A01 T03130188  RH  047%=      5-min Rain = 0
KWA1 280030Z 17013KT 31/19 A301 RMK A01 T03120186  RH  047%=      5-min Rain = 0
KWA1 280031Z 17013KT 31/19 A301 RMK A01 T03120186  RH  047%=      5-min Rain = 0
KWA1 280032Z 17013KT 31/19 A301 RMK A01 T03130186  RH  047%=      5-min Rain = 0
KWA1 280033Z 18012KT 31/19 A301 RMK A01 T03130188  RH  047%=      5-min Rain = 0
KWA1 280034Z 18012KT 31/19 A301 RMK A01 T03130188  RH  048%=      5-min Rain = 0
KWA1 280035Z 18012KT 31/19 A301 RMK A01 T03130188  RH  047%=      5-min Rain = 0
KWA1 280036Z 18012KT 31/19 A301 RMK A01 T03130189  RH  048%=      5-min Rain = 0
KWA1 280037Z 17011KT 31/19 A301 RMK A01 T03130190  RH  048%=      5-min Rain = 0
KWA1 280038Z 18012KT 31/19 A301 RMK A01 T03130190  RH  048%=      5-min Rain = 0
KWA1 280039Z 17011KT 31/19 A301 RMK A01 T03130190  RH  048%=      5-min Rain = 0
KWA1 280040Z 17012KT 31/19 A301 RMK A01 T03120192  RH  049%=      5-min Rain = 0
KWA1 280041Z 17012KT 31/19 A301 RMK A01 T03120192  RH  049%=      5-min Rain = 0
KWA1 280042Z 18012KT 31/19 A301 RMK A01 T03120192  RH  049%=      5-min Rain = 0
KWA1 280043Z 17010KT 31/19 A301 RMK A01 T03120192  RH  049%=      5-min Rain = 0
KWA1 280044Z 16010KT 31/19 A3011 RMK A01 T03120193  RH  049%=      5-min Rain = 0
KWA1 280045Z 16012KT 31/19 A3011 RMK A01 T03110193  RH  049%=      5-min Rain = 0
KWA1 280046Z 16011KT 31/19 A3011 RMK A01 T03110193  RH  049%=      5-min Rain = 0
KWA1 280047Z 15011KT 31/19 A3011 RMK A01 T03100192  RH  049%=      5-min Rain = 0
KWA1 280048Z 16011KT 31/19 A3011 RMK A01 T03100192  RH  050%=      5-min Rain = 0
KWA1 280049Z 16011KT 31/19 A3011 RMK A01 T03100193  RH  050%=      5-min Rain = 0
KWA1 280050Z 16011KT 31/19 A3011 RMK A01 T03090193  RH  050%=      5-min Rain = 0
KWA1 280051Z 15012KT 31/19 A3011 RMK A01 T03090192  RH  050%=      5-min Rain = 0
KWA1 280052Z 16014KT 31/19 A3011 RMK A01 T03090190  RH  049%=      5-min Rain = 0
KWA1 280053Z 16012KT 31/19 A3011 RMK A01 T03090191  RH  050%=      5-min Rain = 0
KWA1 280054Z 15013KT 31/19 A3011 RMK A01 T03080191  RH  050%=      5-min Rain = 0
KWA1 280055Z 16013KT 31/19 A3011 RMK A01 T03080191  RH  050%=      5-min Rain = 0
KWA1 280056Z 16011KT 31/19 A3011 RMK A01 T03070191  RH  050%=      5-min Rain = 0
KWA1 280057Z 16012KT 31/19 A3011 RMK A01 T03070192  RH  050%=      5-min Rain = 0
KWA1 280058Z 16012KT 31/19 A3011 RMK A01 T03070191  RH  050%=      5-min Rain = 0
KWA1 280059Z 16012KT 31/19 A3011 RMK A01 T03060191  RH  050%=      5-min Rain = 0
KWA1 280100Z 16013KT 31/19 A3011 RMK A01 T03060191  RH  050%=      5-min Rain = 0
KWA1 280101Z 17012KT 31/19 A3011 RMK A01 T03060190  RH  050%=      5-min Rain = 0
KWA1 280102Z 17013KT 31/19 A3011 RMK A01 T03060190  RH  050%=      5-min Rain = 0
KWA1 280103Z 17013KT 31/19 A3011 RMK A01 T03050190  RH  050%=      5-min Rain = 0
KWA1 280104Z 17013KT 31/19 A3011 RMK A01 T03050191  RH  051%=      5-min Rain = 0
KWA1 280105Z 17012KT 31/19 A3011 RMK A01 T03050191  RH  051%=      5-min Rain = 0
KWA1 280106Z 17010KT 30/19 A3011 RMK A01 T03040191  RH  051%=      5-min Rain = 0
KWA1 280107Z 17010KT 30/19 A3011 RMK A01 T03030191  RH  051%=      5-min Rain = 0
KWA1 280108Z 17010KT 30/19 A3011 RMK A01 T03020191  RH  051%=      5-min Rain = 0
KWA1 280109Z 17010KT 30/19 A3011 RMK A01 T03020190  RH  051%=      5-min Rain = 0
KWA1 280110Z 17011KT 30/19 A3011 RMK A01 T03020189  RH  051%=      5-min Rain = 0
KWA1 280111Z 17011KT 30/19 A3011 RMK A01 T03010188  RH  051%=      5-min Rain = 0
KWA1 280112Z 17011KT 30/19 A3011 RMK A01 T03010188  RH  051%=      5-min Rain = 0
KWA1 280113Z 17010KT 30/19 A3011 RMK A01 T03010188  RH  051%=      5-min Rain = 0
KWA1 280114Z 17009KT 30/19 A3011 RMK A01 T03000189  RH  051%=      5-min Rain = 0
KWA1 280115Z 17009KT 30/19 A3011 RMK A01 T02990189  RH  051%=      5-min Rain = 0
KWA1 280116Z 17009KT 30/19 A3011 RMK A01 T02990189  RH  052%=      5-min Rain = 0
KWA1 280117Z 17008KT 30/19 A3011 RMK A01 T02990190  RH  052%=      5-min Rain = 0
KWA1 280118Z 17009KT 30/19 A3011 RMK A01 T02980189  RH  052%=      5-min Rain = 0
KWA1 280119Z 17008KT 30/19 A3011 RMK A01 T02970190  RH  053%=      5-min Rain = 0
KWA1 280120Z 16007KT 30/19 A3011 RMK A01 T02970190  RH  053%=      5-min Rain = 0
KWA1 280121Z 17007KT 30/19 A3011 RMK A01 T02960190  RH  053%=      5-min Rain = 0
KWA1 280122Z 17009KT 30/19 A3011 RMK A01 T02960189  RH  053%=      5-min Rain = 0
KWA1 280123Z 17008KT 30/19 A3011 RMK A01 T02950189  RH  053%=      5-min Rain = 0
KWA1 280124Z 17010KT 30/19 A3012 RMK A01 T02950188  RH  053%=      5-min Rain = 0
KWA1 280125Z 17010KT 30/19 A3012 RMK A01 T02950188  RH  052%=      5-min Rain = 0
KWA1 280126Z 17009KT 30/19 A3012 RMK A01 T02950186  RH  052%=      5-min Rain = 0
KWA1 280127Z 16009KT 30/19 A3012 RMK A01 T02950187  RH  052%=      5-min Rain = 0
KWA1 280128Z 16009KT 29/19 A3012 RMK A01 T02940186  RH  052%=      5-min Rain = 0
KWA1 280129Z 16009KT 29/19 A3012 RMK A01 T02940185  RH  052%=      5-min Rain = 0
KWA1 280130Z 16010KT 29/18 A3012 RMK A01 T02930184  RH  052%=      5-min Rain = 0
KWA1 280131Z 16011KT 29/18 A3012 RMK A01 T02930184  RH  052%=      5-min Rain = 0
KWA1 280132Z 16011KT 29/18 A3012 RMK A01 T02940184  RH  052%=      5-min Rain = 0
KWA1 280133Z 16010KT 29/18 A3012 RMK A01 T02930184  RH  052%=      5-min Rain = 0
KWA1 280134Z 16010KT 29/18 A3012 RMK A01 T02930184  RH  052%=      5-min Rain = 0
KWA1 280135Z 16011KT 29/18 A3012 RMK A01 T02920184  RH  052%=      5-min Rain = 0
KWA1 280136Z 16010KT 29/18 A3012 RMK A01 T02920184  RH  052%=      5-min Rain = 0
KWA1 280137Z 16009KT 29/19 A3012 RMK A01 T02920185  RH  052%=      5-min Rain = 0
KWA1 280138Z 16010KT 29/19 A3012 RMK A01 T02910185  RH  053%=      5-min Rain = 0
KWA1 280139Z 16010KT 29/19 A3012 RMK A01 T02900185  RH  053%=      5-min Rain = 0
KWA1 280140Z 17009KT 29/19 A3012 RMK A01 T02900185  RH  053%=      5-min Rain = 0
KWA1 280141Z 16009KT 29/19 A3012 RMK A01 T02890185  RH  053%=      5-min Rain = 0
KWA1 280142Z 16009KT 29/19 A3012 RMK A01 T02890185  RH  054%=      5-min Rain = 0
KWA1 280143Z 16010KT 29/19 A3012 RMK A01 T02880185  RH  054%=      5-min Rain = 0
KWA1 280144Z 16009KT 29/19 A3012 RMK A01 T02880185  RH  054%=      5-min Rain = 0
KWA1 280145Z 16009KT 29/19 A3012 RMK A01 T02880186  RH  054%=      5-min Rain = 0
KWA1 280146Z 17008KT 29/19 A3012 RMK A01 T02870186  RH  054%=      5-min Rain = 0
KWA1 280147Z 17009KT 29/19 A3012 RMK A01 T02860186  RH  055%=      5-min Rain = 0
KWA1 280148Z 17008KT 29/19 A3012 RMK A01 T02860186  RH  055%=      5-min Rain = 0
KWA1 280149Z 16008KT 29/19 A3012 RMK A01 T02850186  RH  055%=      5-min Rain = 0
KWA1 280150Z 16008KT 28/19 A3012 RMK A01 T02840186  RH  055%=      5-min Rain = 0
KWA1 280151Z 16008KT 28/19 A3012 RMK A01 T02840186  RH  056%=      5-min Rain = 0
KWA1 280152Z 16007KT 28/19 A3012 RMK A01 T02830187  RH  056%=      5-min Rain = 0
KWA1 280153Z 17008KT 28/19 A3012 RMK A01 T02830187  RH  056%=      5-min Rain = 0
KWA1 280154Z 17007KT 28/19 A3012 RMK A01 T02830187  RH  056%=      5-min Rain = 0
KWA1 280155Z 17008KT 28/19 A3012 RMK A01 T02820187  RH  056%=      5-min Rain = 0
KWA1 280156Z 17007KT 28/19 A3012 RMK A01 T02820187  RH  056%=      5-min Rain = 0
KWA1 280157Z 17007KT 28/19 A3012 RMK A01 T02810187  RH  057%=      5-min Rain = 0
KWA1 280158Z 17007KT 28/19 A3012 RMK A01 T02810187  RH  057%=      5-min Rain = 0
KWA1 280159Z 17007KT 28/19 A3012 RMK A01 T02810187  RH  057%=      5-min Rain = 0
KWA1 280200Z 17007KT 28/19 A3012 RMK A01 T02800187  RH  057%=      5-min Rain = 0
KWA1 280201Z 17007KT 28/19 A3012 RMK A01 T02800188  RH  057%=      5-min Rain = 0
KWA1 280202Z 17007KT 28/19 A3012 RMK A01 T02790188  RH  058%=      5-min Rain = 0
KWA1 280203Z 17006KT 28/19 A3012 RMK A01 T02790188  RH  058%=      5-min Rain = 0
KWA1 280204Z 17007KT 28/19 A3012 RMK A01 T02790188  RH  058%=      5-min Rain = 0
KWA1 280205Z 17007KT 28/19 A3012 RMK A01 T02780188  RH  058%=      5-min Rain = 0
KWA1 280206Z 17006KT 28/19 A3012 RMK A01 T02780189  RH  058%=      5-min Rain = 0
KWA1 280207Z 17006KT 28/19 A3012 RMK A01 T02770188  RH  058%=      5-min Rain = 0
KWA1 280208Z 16006KT 28/19 A3012 RMK A01 T02770189  RH  059%=      5-min Rain = 0
KWA1 280209Z 16006KT 28/19 A3012 RMK A01 T02770189  RH  059%=      5-min Rain = 0
KWA1 280210Z 16006KT 28/19 A3012 RMK A01 T02760189  RH  059%=      5-min Rain = 0
KWA1 280211Z 16006KT 28/19 A3012 RMK A01 T02760189  RH  059%=      5-min Rain = 0
KWA1 280212Z 16006KT 28/19 A3013 RMK A01 T02750189  RH  059%=      5-min Rain = 0
KWA1 280213Z 15005KT 28/19 A3013 RMK A01 T02750189  RH  059%=      5-min Rain = 0
KWA1 280214Z 15005KT 27/19 A3013 RMK A01 T02740189  RH  060%=      5-min Rain = 0
KWA1 280215Z 15005KT 27/19 A3013 RMK A01 T02740189  RH  060%=      5-min Rain = 0
KWA1 280216Z 15005KT 27/19 A3013 RMK A01 T02730190  RH  060%=      5-min Rain = 0
KWA1 280217Z 14005KT 27/19 A3013 RMK A01 T02730190  RH  061%=      5-min Rain = 0
KWA1 280218Z 14006KT 27/19 A3013 RMK A01 T02720191  RH  061%=      5-min Rain = 0
KWA1 280219Z 14005KT 27/19 A3013 RMK A01 T02710190  RH  061%=      5-min Rain = 0
KWA1 280220Z 13005KT 27/19 A3013 RMK A01 T02710190  RH  061%=      5-min Rain = 0
KWA1 280221Z 13005KT 27/19 A3013 RMK A01 T02720190  RH  061%=      5-min Rain = 0
KWA1 280222Z 14005KT 27/19 A3013 RMK A01 T02720191  RH  061%=      5-min Rain = 0
KWA1 280223Z 14005KT 27/19 A3013 RMK A01 T02710192  RH  062%=      5-min Rain = 0
KWA1 280224Z 14005KT 27/19 A3013 RMK A01 T02710192  RH  062%=      5-min Rain = 0
KWA1 280225Z 14004KT 27/19 A3013 RMK A01 T02700192  RH  062%=      5-min Rain = 0
KWA1 280226Z 14005KT 27/19 A3013 RMK A01 T02700192  RH  063%=      5-min Rain = 0
KWA1 280227Z 14005KT 27/19 A3013 RMK A01 T02690192  RH  063%=      5-min Rain = 0
KWA1 280228Z 13005KT 27/19 A3013 RMK A01 T02690193  RH  063%=      5-min Rain = 0
KWA1 280229Z 13005KT 27/19 A3013 RMK A01 T02690193  RH  063%=      5-min Rain = 0
KWA1 280230Z 13005KT 27/19 A3013 RMK A01 T02690194  RH  063%=      5-min Rain = 0
KWA1 280231Z 12005KT 27/19 A3013 RMK A01 T02680193  RH  064%=      5-min Rain = 0
KWA1 280232Z 12005KT 27/19 A3013 RMK A01 T02680194  RH  064%=      5-min Rain = 0
KWA1 280233Z 11004KT 27/19 A3013 RMK A01 T02670194  RH  064%=      5-min Rain = 0
KWA1 280234Z 11004KT 27/19 A3013 RMK A01 T02670194  RH  064%=      5-min Rain = 0
KWA1 280235Z 11004KT 27/19 A3013 RMK A01 T02670194  RH  064%=      5-min Rain = 0
KWA1 280236Z 11003KT 27/19 A3013 RMK A01 T02670194  RH  064%=      5-min Rain = 0
KWA1 280237Z 12003KT 27/19 A3013 RMK A01 T02660193  RH  064%=      5-min Rain = 0
KWA1 280238Z 12003KT 27/19 A3013 RMK A01 T02670193  RH  064%=      5-min Rain = 0
KWA1 280239Z 12004KT 27/20 A3014 RMK A01 T02670195  RH  065%=      5-min Rain = 0
KWA1 280240Z 13004KT 27/20 A3014 RMK A01 T02660195  RH  065%=      5-min Rain = 0
KWA1 280241Z 13005KT 27/20 A3014 RMK A01 T02650195  RH  065%=      5-min Rain = 0
KWA1 280242Z 13005KT 27/20 A3014 RMK A01 T02650195  RH  066%=      5-min Rain = 0
KWA1 280243Z 13006KT 27/20 A3014 RMK A01 T02650196  RH  066%=      5-min Rain = 0
KWA1 280244Z 13006KT 27/20 A3014 RMK A01 T02650196  RH  066%=      5-min Rain = 0
KWA1 280245Z 13006KT 26/20 A3014 RMK A01 T02640197  RH  067%=      5-min Rain = 0
KWA1 280246Z 13006KT 26/20 A3014 RMK A01 T02640197  RH  067%=      5-min Rain = 0
KWA1 280247Z 13006KT 26/20 A3014 RMK A01 T02640197  RH  067%=      5-min Rain = 0
KWA1 280248Z 13006KT 26/20 A3014 RMK A01 T02630198  RH  067%=      5-min Rain = 0
KWA1 280249Z 13006KT 26/20 A3014 RMK A01 T02630199  RH  068%=      5-min Rain = 0
KWA1 280250Z 13007KT 26/20 A3014 RMK A01 T02620199  RH  068%=      5-min Rain = 0
KWA1 280251Z 13007KT 26/20 A3014 RMK A01 T02610199  RH  069%=      5-min Rain = 0
KWA1 280252Z 14007KT 26/20 A3014 RMK A01 T02600199  RH  069%=      5-min Rain = 0
KWA1 280253Z 14008KT 26/20 A3014 RMK A01 T02600200  RH  069%=      5-min Rain = 0
KWA1 280254Z 14008KT 26/20 A3014 RMK A01 T02600199  RH  069%=      5-min Rain = 0
KWA1 280255Z 14008KT 26/20 A3014 RMK A01 T02610198  RH  069%=      5-min Rain = 0
KWA1 280256Z 14008KT 26/20 A3014 RMK A01 T02620198  RH  068%=      5-min Rain = 0
KWA1 280257Z 14007KT 26/20 A3014 RMK A01 T02630198  RH  067%=      5-min Rain = 0
KWA1 280258Z 14008KT 26/20 A3014 RMK A01 T02640198  RH  067%=      5-min Rain = 0
KWA1 280259Z 14008KT 27/20 A3014 RMK A01 T02650198  RH  067%=      5-min Rain = 0
KWA1 280300Z 14007KT 27/20 A3014 RMK A01 T02650198  RH  067%=      5-min Rain = 0
KWA1 280301Z 14008KT 27/20 A3014 RMK A01 T02650197  RH  067%=      5-min Rain = 0
KWA1 280302Z 14008KT 27/20 A3014 RMK A01 T02650197  RH  067%=      5-min Rain = 0
KWA1 280303Z 14007KT 27/20 A3014 RMK A01 T02650198  RH  067%=      5-min Rain = 0
KWA1 280304Z 14007KT 27/20 A3014 RMK A01 T02650198  RH  067%=      5-min Rain = 0
KWA1 280305Z 14008KT 27/20 A3014 RMK A01 T02650198  RH  067%=      5-min Rain = 0
KWA1 280306Z 14007KT 27/20 A3014 RMK A01 T02650198  RH  067%=      5-min Rain = 0
KWA1 280307Z 14007KT 27/20 A3015 RMK A01 T02650198  RH  067%=      5-min Rain = 0
KWA1 280308Z 14008KT 27/20 A3015 RMK A01 T02650198  RH  067%=      5-min Rain = 0
KWA1 280309Z 14007KT 27/20 A3015 RMK A01 T02650198  RH  067%=      5-min Rain = 0
KWA1 280310Z 14008KT 26/20 A3015 RMK A01 T02640198  RH  067%=      5-min Rain = 0
KWA1 280311Z 14008KT 26/20 A3015 RMK A01 T02640198  RH  067%=      5-min Rain = 0
KWA1 280312Z 14010KT 26/20 A3015 RMK A01 T02640198  RH  067%=      5-min Rain = 0
KWA1 280313Z 14010KT 26/20 A3015 RMK A01 T02640197  RH  067%=      5-min Rain = 0
KWA1 280314Z 14010KT 27/20 A3015 RMK A01 T02650196  RH  066%=      5-min Rain = 0
KWA1 280315Z 14011KT 27/20 A3015 RMK A01 T02660196  RH  065%=      5-min Rain = 0
KWA1 280316Z 14010KT 27/20 A3015 RMK A01 T02670196  RH  065%=      5-min Rain = 0
KWA1 280317Z 14010KT 27/20 A3015 RMK A01 T02670196  RH  065%=      5-min Rain = 0
KWA1 280318Z 14009KT 27/20 A3016 RMK A01 T02670196  RH  065%=      5-min Rain = 0
KWA1 280319Z 14010KT 27/20 A3015 RMK A01 T02680196  RH  065%=      5-min Rain = 0
KWA1 280320Z 14011KT 27/20 A3016 RMK A01 T02670196  RH  065%=      5-min Rain = 0
KWA1 280321Z 14011KT 27/20 A3016 RMK A01 T02670195  RH  065%=      5-min Rain = 0
KWA1 280322Z 14011KT 27/20 A3016 RMK A01 T02670195  RH  065%=      5-min Rain = 0
KWA1 280323Z 15011KT 27/20 A3016 RMK A01 T02670195  RH  065%=      5-min Rain = 0
KWA1 280324Z 15011KT 27/20 A3016 RMK A01 T02670195  RH  065%=      5-min Rain = 0
KWA1 280325Z 15011KT 27/20 A3016 RMK A01 T02660196  RH  065%=      5-min Rain = 0
KWA1 280326Z 15011KT 27/20 A3016 RMK A01 T02660196  RH  065%=      5-min Rain = 0
KWA1 280327Z 15012KT 27/20 A3016 RMK A01 T02650195  RH  065%=      5-min Rain = 0
KWA1 280328Z 15011KT 27/20 A3016 RMK A01 T02650195  RH  065%=      5-min Rain = 0
KWA1 280329Z 15011KT 27/20 A3016 RMK A01 T02650195  RH  066%=      5-min Rain = 0
KWA1 280330Z 15012KT 27/20 A3016 RMK A01 T02650195  RH  066%=      5-min Rain = 0
KWA1 280331Z 15012KT 27/20 A3016 RMK A01 T02650196  RH  066%=      5-min Rain = 0
KWA1 280332Z 15011KT 26/20 A3016 RMK A01 T02640196  RH  066%=      5-min Rain = 0
KWA1 280333Z 15011KT 26/20 A3016 RMK A01 T02630196  RH  066%=      5-min Rain = 0
KWA1 280334Z 15010KT 26/20 A3016 RMK A01 T02630196  RH  067%=      5-min Rain = 0
KWA1 280335Z 15011KT 26/20 A3016 RMK A01 T02630196  RH  067%=      5-min Rain = 0
KWA1 280336Z 15011KT 26/20 A3016 RMK A01 T02620196  RH  067%=      5-min Rain = 0
KWA1 280337Z 15011KT 26/20 A3016 RMK A01 T02620197  RH  067%=      5-min Rain = 0
KWA1 280338Z 15011KT 26/20 A3016 RMK A01 T02610196  RH  067%=      5-min Rain = 0
KWA1 280339Z 15011KT 26/20 A3016 RMK A01 T02610196  RH  068%=      5-min Rain = 0
KWA1 280340Z 15011KT 26/20 A3016 RMK A01 T02610196  RH  068%=      5-min Rain = 0
KWA1 280341Z 16011KT 26/20 A3016 RMK A01 T02600196  RH  068%=      5-min Rain = 0
KWA1 280342Z 16013KT 26/20 A3016 RMK A01 T02610196  RH  068%=      5-min Rain = 0
KWA1 280343Z 16013KT 26/20 A3016 RMK A01 T02610196  RH  068%=      5-min Rain = 0
KWA1 280344Z 16011KT 26/20 A3016 RMK A01 T02600196  RH  068%=      5-min Rain = 0
KWA1 280345Z 16012KT 26/20 A3016 RMK A01 T02610196  RH  068%=      5-min Rain = 0
KWA1 280346Z 15013KT 26/20 A3016 RMK A01 T02600196  RH  068%=      5-min Rain = 0
KWA1 280347Z 16012KT 26/20 A3016 RMK A01 T02600196  RH  068%=      5-min Rain = 0
KWA1 280348Z 15012KT 26/20 A3016 RMK A01 T02600196  RH  068%=      5-min Rain = 0
KWA1 280349Z 16011KT 26/20 A3016 RMK A01 T02600196  RH  068%=      5-min Rain = 0
KWA1 280350Z 16012KT 26/20 A3016 RMK A01 T02590196  RH  068%=      5-min Rain = 0
KWA1 280351Z 16011KT 26/20 A3016 RMK A01 T02590196  RH  068%=      5-min Rain = 0
KWA1 280352Z 16011KT 26/20 A3016 RMK A01 T02590196  RH  068%=      5-min Rain = 0
KWA1 280353Z 16010KT 26/20 A3016 RMK A01 T02590196  RH  068%=      5-min Rain = 0
KWA1 280354Z 15011KT 26/20 A3016 RMK A01 T02580196  RH  068%=      5-min Rain = 0
KWA1 280355Z 15011KT 26/20 A3016 RMK A01 T02580196  RH  068%=      5-min Rain = 0
KWA1 280356Z 15011KT 26/20 A3016 RMK A01 T02580195  RH  068%=      5-min Rain = 0
KWA1 280357Z 15010KT 26/20 A3016 RMK A01 T02580195  RH  068%=      5-min Rain = 0
KWA1 280358Z 16011KT 26/20 A3016 RMK A01 T02580195  RH  068%=      5-min Rain = 0
KWA1 280359Z 16010KT 26/19 A3016 RMK A01 T02580194  RH  068%=      5-min Rain = 0
KWA1 280400Z 16011KT 26/19 A3016 RMK A01 T02580194  RH  068%=      5-min Rain = 0
KWA1 280401Z 16011KT 26/19 A3016 RMK A01 T02580193  RH  067%=      5-min Rain = 0
KWA1 280402Z 16011KT 26/19 A3016 RMK A01 T02580193  RH  067%=      5-min Rain = 0
KWA1 280403Z 16011KT 26/19 A3016 RMK A01 T02580193  RH  067%=      5-min Rain = 0
KWA1 280404Z 15011KT 26/19 A3016 RMK A01 T02580192  RH  067%=      5-min Rain = 0
KWA1 280405Z 15011KT 26/19 A3016 RMK A01 T02580192  RH  067%=      5-min Rain = 0
KWA1 280406Z 15011KT 26/19 A3017 RMK A01 T02580192  RH  067%=      5-min Rain = 0
KWA1 280407Z 15009KT 26/19 A3017 RMK A01 T02580192  RH  067%=      5-min Rain = 0
KWA1 280408Z 15010KT 26/19 A3017 RMK A01 T02580192  RH  067%=      5-min Rain = 0
KWA1 280409Z 16010KT 26/19 A3016 RMK A01 T02580192  RH  067%=      5-min Rain = 0
KWA1 280410Z 16010KT 26/19 A3016 RMK A01 T02570192  RH  067%=      5-min Rain = 0
KWA1 280411Z 16010KT 26/19 A3016 RMK A01 T02570191  RH  067%=      5-min Rain = 0
KWA1 280412Z 16010KT 26/19 A3017 RMK A01 T02570191  RH  067%=      5-min Rain = 0
KWA1 280413Z 16010KT 26/19 A3017 RMK A01 T02560191  RH  067%=      5-min Rain = 0
KWA1 280414Z 16011KT 26/19 A3017 RMK A01 T02560191  RH  067%=      5-min Rain = 0
KWA1 280415Z 16010KT 26/19 A3017 RMK A01 T02560191  RH  067%=      5-min Rain = 0
KWA1 280416Z 16011KT 26/19 A3016 RMK A01 T02560191  RH  067%=      5-min Rain = 0
KWA1 280417Z 16010KT 26/19 A3016 RMK A01 T02560190  RH  067%=      5-min Rain = 0
KWA1 280418Z 16010KT 26/19 A3016 RMK A01 T02560190  RH  067%=      5-min Rain = 0
KWA1 280419Z 16010KT 26/19 A3016 RMK A01 T02560190  RH  067%=      5-min Rain = 0
KWA1 280420Z 16011KT 26/19 A3016 RMK A01 T02560190  RH  067%=      5-min Rain = 0
KWA1 280421Z 17010KT 26/19 A3016 RMK A01 T02560189  RH  067%=      5-min Rain = 0
KWA1 280422Z 17010KT 26/19 A3016 RMK A01 T02560189  RH  067%=      5-min Rain = 0
KWA1 280423Z 17010KT 26/19 A3016 RMK A01 T02560190  RH  067%=      5-min Rain = 0
KWA1 280424Z 16010KT 26/19 A3017 RMK A01 T02560190  RH  067%=      5-min Rain = 0
KWA1 280425Z 16011KT 26/19 A3017 RMK A01 T02550189  RH  067%=      5-min Rain = 0
KWA1 280426Z 16012KT 26/19 A3017 RMK A01 T02550189  RH  067%=      5-min Rain = 0
KWA1 280427Z 17011KT 26/19 A3017 RMK A01 T02550189  RH  067%=      5-min Rain = 0
KWA1 280428Z 17011KT 26/19 A3017 RMK A01 T02550189  RH  067%=      5-min Rain = 0
KWA1 280429Z 17011KT 26/19 A3017 RMK A01 T02550190  RH  067%=      5-min Rain = 0
KWA1 280430Z 17010KT 26/19 A3017 RMK A01 T02550190  RH  067%=      5-min Rain = 0
KWA1 280431Z 16010KT 26/19 A3017 RMK A01 T02550190  RH  067%=      5-min Rain = 0
KWA1 280432Z 17010KT 25/19 A3017 RMK A01 T02540190  RH  067%=      5-min Rain = 0
KWA1 280433Z 17009KT 25/19 A3017 RMK A01 T02540190  RH  068%=      5-min Rain = 0
KWA1 280434Z 17009KT 25/19 A3017 RMK A01 T02540190  RH  068%=      5-min Rain = 0
KWA1 280435Z 17008KT 25/19 A3017 RMK A01 T02530190  RH  068%=      5-min Rain = 0
KWA1 280436Z 18008KT 25/19 A3017 RMK A01 T02530190  RH  068%=      5-min Rain = 0
KWA1 280437Z 17009KT 25/19 A3017 RMK A01 T02530190  RH  068%=      5-min Rain = 0
KWA1 280438Z 17010KT 25/19 A3017 RMK A01 T02520190  RH  068%=      5-min Rain = 0
KWA1 280439Z 17009KT 25/19 A3017 RMK A01 T02520190  RH  068%=      5-min Rain = 0
KWA1 280440Z 17008KT 25/19 A3017 RMK A01 T02520190  RH  068%=      5-min Rain = 0
KWA1 280441Z 17009KT 25/19 A3017 RMK A01 T02520190  RH  069%=      5-min Rain = 0
KWA1 280442Z 16009KT 25/19 A3017 RMK A01 T02510190  RH  069%=      5-min Rain = 0
KWA1 280443Z 17009KT 25/19 A3017 RMK A01 T02510190  RH  069%=      5-min Rain = 0
KWA1 280444Z 17009KT 25/19 A3017 RMK A01 T02510190  RH  069%=      5-min Rain = 0
KWA1 280445Z 17008KT 25/19 A3017 RMK A01 T02510190  RH  069%=      5-min Rain = 0
KWA1 280446Z 17008KT 25/19 A3016 RMK A01 T02500190  RH  069%=      5-min Rain = 0
KWA1 280447Z 17009KT 25/19 A3016 RMK A01 T02500191  RH  069%=      5-min Rain = 0
KWA1 280448Z 18008KT 25/19 A3016 RMK A01 T02500191  RH  069%=      5-min Rain = 0
KWA1 280449Z 18009KT 25/19 A3016 RMK A01 T02500191  RH  070%=      5-min Rain = 0
KWA1 280450Z 17009KT 25/19 A3016 RMK A01 T02500191  RH  070%=      5-min Rain = 0
KWA1 280451Z 17009KT 25/19 A3016 RMK A01 T02500191  RH  070%=      5-min Rain = 0
KWA1 280452Z 17009KT 25/19 A3016 RMK A01 T02490191  RH  070%=      5-min Rain = 0
KWA1 280453Z 17009KT 25/19 A3016 RMK A01 T02490190  RH  070%=      5-min Rain = 0
KWA1 280454Z 17009KT 25/19 A3016 RMK A01 T02490191  RH  070%=      5-min Rain = 0
KWA1 280455Z 18009KT 25/19 A3016 RMK A01 T02480191  RH  070%=      5-min Rain = 0
KWA1 280456Z 18009KT 25/19 A3016 RMK A01 T02480191  RH  071%=      5-min Rain = 0
KWA1 280457Z 18009KT 25/19 A3016 RMK A01 T02480191  RH  071%=      5-min Rain = 0
KWA1 280458Z 18008KT 25/19 A3016 RMK A01 T02480191  RH  071%=      5-min Rain = 0
KWA1 280459Z 18008KT 25/19 A3016 RMK A01 T02480191  RH  071%=      5-min Rain = 0

Page generated in 0.071 seconds.